KQA2 HKJK-KJFK

Flight info

Callsign KQA2
Flight time N/A
Altitude 32000
Route APKUB1A APKUB UQ293 EKMOG DCT NN UW325 SIPKI UT325 BUN UG862 AMPER/N0508F340 UG862 DIR UB730 DJA/N0499F360 UB730 MNA UM999 XAVOV UL58 ARI UN726 BAMBA N726 ORTOP DCT SONAP DCT KOMUT/M086F360 DCT 39N020W/M086F380 41N030W 43N040W 44N050W DCT JAROM DCT LOMPI/N0493F380 DCT TUSKY DCT PLYMM PARCH3
Aircraft B789/H-SDE1E2E3FGHIJ2J3J4J5M1RWXY/LB1D1

Departure

Time 2026-04-28 11:39
Airport Jomo Kenyatta International Airport (HKJK)

Arrival

Time N/A
Airport John F. Kennedy International Airport (KJFK)
Time Latitude Longitude Altitude Speed Heading
2026-04-28 10:14 -1.33352 36.92466 5335 ft 0 kts 325°
2026-04-28 10:34 -1.33352 36.92467 5329 ft 0 kts 325°
2026-04-28 11:16 -1.33361 36.92473 5336 ft 3 kts 325°
2026-04-28 11:17 -1.33375 36.92482 5336 ft 1 kts 325°
2026-04-28 11:17 -1.33387 36.92491 5336 ft 3 kts 304°
2026-04-28 11:17 -1.33392 36.92502 5336 ft 3 kts 266°
2026-04-28 11:17 -1.33388 36.92517 5336 ft 3 kts 237°
2026-04-28 11:18 -1.33376 36.92533 5336 ft 3 kts 227°
2026-04-28 11:18 -1.33371 36.92538 5336 ft 0 kts 226°
2026-04-28 11:22 -1.33373 36.92536 5329 ft 1 kts 226°
2026-04-28 11:23 -1.33382 36.92526 5329 ft 3 kts 226°
2026-04-28 11:23 -1.33398 36.92510 5325 ft 4 kts 226°
2026-04-28 11:23 -1.33413 36.92489 5334 ft 4 kts 237°
2026-04-28 11:23 -1.33428 36.92465 5332 ft 5 kts 242°
2026-04-28 11:24 -1.33441 36.92432 5333 ft 5 kts 253°
2026-04-28 11:24 -1.33447 36.92394 5332 ft 6 kts 264°
2026-04-28 11:24 -1.33454 36.92350 5331 ft 4 kts 249°
2026-04-28 11:24 -1.33468 36.92326 5330 ft 5 kts 239°
2026-04-28 11:25 -1.33489 36.92296 5332 ft 6 kts 234°
2026-04-28 11:25 -1.33516 36.92258 5333 ft 6 kts 243°
2026-04-28 11:25 -1.33521 36.92229 5332 ft 3 kts 274°
2026-04-28 11:25 -1.33518 36.92207 5332 ft 2 kts 282°
2026-04-28 11:26 -1.33512 36.92194 5335 ft 1 kts 299°
2026-04-28 11:26 -1.33509 36.92191 5334 ft 0 kts 314°
2026-04-28 11:26 -1.33503 36.92186 5333 ft 2 kts 319°
2026-04-28 11:26 -1.33482 36.92169 5333 ft 5 kts 322°
2026-04-28 11:27 -1.33445 36.92141 5330 ft 8 kts 325°
2026-04-28 11:27 -1.33390 36.92103 5333 ft 11 kts 325°
2026-04-28 11:27 -1.33319 36.92054 5334 ft 14 kts 325°
2026-04-28 11:27 -1.33239 36.91993 5335 ft 16 kts 322°
2026-04-28 11:28 -1.33146 36.91925 5331 ft 18 kts 324°
2026-04-28 11:28 -1.33040 36.91848 5337 ft 19 kts 324°
2026-04-28 11:28 -1.32959 36.91790 5344 ft 14 kts 324°
2026-04-28 11:28 -1.32875 36.91729 5345 ft 17 kts 323°
2026-04-28 11:29 -1.32775 36.91669 5344 ft 14 kts 349°
2026-04-28 11:29 -1.32718 36.91696 5342 ft 8 kts 48°
2026-04-28 11:29 -1.32677 36.91749 5341 ft 11 kts 54°
2026-04-28 11:29 -1.32673 36.91754 5340 ft 0 kts 54°
2026-04-28 11:30 -1.32665 36.91765 5342 ft 13 kts 54°
2026-04-28 11:31 -1.32495 36.91999 5335 ft 70 kts 54°
2026-04-28 11:31 -1.32107 36.92529 5316 ft 119 kts 53°
2026-04-28 11:31 -1.31529 36.93320 5305 ft 160 kts 54°
2026-04-28 11:31 -1.30849 36.94314 5316 ft 187 kts 57°
2026-04-28 11:32 -1.30100 36.95271 5875 ft 161 kts 56°
2026-04-28 11:32 -1.29357 36.96111 5745 ft 170 kts 55°
2026-04-28 11:32 -1.28564 36.97043 5563 ft 180 kts 55°
2026-04-28 11:32 -1.27782 36.97962 5877 ft 167 kts 53°
2026-04-28 11:33 -1.27002 36.98883 5670 ft 191 kts 56°
2026-04-28 11:33 -1.26549 36.99752 5056 ft 3 kts 293°
2026-04-28 11:33 -1.26565 36.99744 5018 ft 0 kts 336°
2026-04-28 11:36 -1.26244 37.00119 4996 ft 0 kts 336°
2026-04-28 11:36 -1.26277 37.00176 4997 ft 0 kts 336°
2026-04-28 11:39 -1.26277 37.00177 11790 ft 0 kts 21°
2026-04-28 11:39 -1.25008 37.00706 14278 ft 281 kts 30°
2026-04-28 11:39 -1.23244 37.01429 14728 ft 265 kts 24°
2026-04-28 11:40 -1.21476 37.01804 14944 ft 263 kts
2026-04-28 11:40 -1.19588 37.01464 14258 ft 306 kts 340°
2026-04-28 11:40 -1.17509 37.00632 14246 ft 323 kts 337°
2026-04-28 11:40 -1.15509 36.99751 15082 ft 307 kts 336°
2026-04-28 11:41 -1.13580 36.98879 15599 ft 306 kts 336°
2026-04-28 11:41 -1.11636 36.97991 16000 ft 307 kts 336°
2026-04-28 11:41 -1.09694 36.97016 15938 ft 325 kts 325°
2026-04-28 11:41 -1.08148 36.95276 15863 ft 341 kts 297°
2026-04-28 11:42 -1.07462 36.92988 15925 ft 355 kts 274°
2026-04-28 11:42 -1.07613 36.90501 16052 ft 366 kts 261°
2026-04-28 11:42 -1.08085 36.87980 16284 ft 375 kts 259°
2026-04-28 11:42 -1.08518 36.85353 16448 ft 386 kts 263°
2026-04-28 11:43 -1.08644 36.82683 16559 ft 398 kts 270°
2026-04-28 11:43 -1.08562 36.79863 16685 ft 409 kts 272°
2026-04-28 11:43 -1.08478 36.77000 17105 ft 415 kts 270°
2026-04-28 11:43 -1.08556 36.74117 17478 ft 420 kts 267°
2026-04-28 11:44 -1.08686 36.71180 17838 ft 423 kts 268°
2026-04-28 11:44 -1.08729 36.68262 18195 ft 427 kts 270°
2026-04-28 11:44 -1.08729 36.65293 18526 ft 430 kts 270°
2026-04-28 11:44 -1.08769 36.62440 18834 ft 433 kts 269°
2026-04-28 11:45 -1.08845 36.59428 19163 ft 435 kts 268°
2026-04-28 11:45 -1.08903 36.56451 19476 ft 438 kts 269°
2026-04-28 11:45 -1.08938 36.53404 19802 ft 440 kts 269°
2026-04-28 11:45 -1.08980 36.50331 20114 ft 442 kts 269°
2026-04-28 11:46 -1.09036 36.47286 20464 ft 445 kts 269°
2026-04-28 11:46 -1.09092 36.44229 20939 ft 445 kts 269°
2026-04-28 11:46 -1.09140 36.41046 21208 ft 449 kts 269°
2026-04-28 11:46 -1.09186 36.37917 21525 ft 452 kts 269°
2026-04-28 11:47 -1.09239 36.34768 21842 ft 454 kts 269°
2026-04-28 11:47 -1.09292 36.31657 22130 ft 456 kts 269°
2026-04-28 11:47 -1.09343 36.28493 22430 ft 458 kts 269°
2026-04-28 11:47 -1.09392 36.25320 22731 ft 460 kts 269°
2026-04-28 11:48 -1.09444 36.22078 23046 ft 462 kts 269°
2026-04-28 11:48 -1.09496 36.18924 23337 ft 464 kts 269°
2026-04-28 11:48 -1.09443 36.15689 23552 ft 467 kts 276°
2026-04-28 11:48 -1.08780 36.12520 23797 ft 469 kts 288°
2026-04-28 11:49 -1.07577 36.09527 24063 ft 470 kts 294°
2026-04-28 11:49 -1.06165 36.06573 24313 ft 471 kts 296°
2026-04-28 11:49 -1.04784 36.03604 24550 ft 473 kts 293°
2026-04-28 11:49 -1.03547 36.00556 24780 ft 475 kts 291°
2026-04-28 11:50 -1.02307 35.97471 25024 ft 477 kts 293°
2026-04-28 11:50 -1.00995 35.94480 25260 ft 478 kts 294°
2026-04-28 11:50 -0.99614 35.91396 25503 ft 480 kts 294°
2026-04-28 11:50 -0.98316 35.88351 25742 ft 481 kts 293°
2026-04-28 11:51 -0.97018 35.85234 25975 ft 483 kts 293°
2026-04-28 11:51 -0.95710 35.82180 26209 ft 485 kts 294°
2026-04-28 11:51 -0.94365 35.79098 26438 ft 486 kts 294°
2026-04-28 11:51 -0.93027 35.75992 26669 ft 488 kts 293°
2026-04-28 11:52 -0.91697 35.72859 26885 ft 490 kts 293°
2026-04-28 11:52 -0.90378 35.69768 27107 ft 492 kts 294°
2026-04-28 11:52 -0.89017 35.66614 27335 ft 494 kts 294°
2026-04-28 11:52 -0.87659 35.63461 27578 ft 495 kts 294°
2026-04-28 11:53 -0.86284 35.60246 27796 ft 497 kts 293°
2026-04-28 11:53 -0.84943 35.57110 28019 ft 499 kts 294°
2026-04-28 11:53 -0.83574 35.53920 28242 ft 501 kts 294°
2026-04-28 11:53 -0.82202 35.50731 28457 ft 502 kts 294°
2026-04-28 11:54 -0.80822 35.47512 28675 ft 504 kts 294°
2026-04-28 11:54 -0.79447 35.44302 28908 ft 505 kts 294°
2026-04-28 11:54 -0.78057 35.41063 29113 ft 507 kts 294°
2026-04-28 11:54 -0.76671 35.37834 29349 ft 509 kts 294°
2026-04-28 11:55 -0.75256 35.34539 29562 ft 511 kts 294°
2026-04-28 11:55 -0.73876 35.31319 29773 ft 512 kts 294°
2026-04-28 11:55 -0.72474 35.28050 29997 ft 514 kts 294°
2026-04-28 11:55 -0.71097 35.24841 30182 ft 516 kts 294°
2026-04-28 11:56 -0.69690 35.21563 30362 ft 517 kts 294°
2026-04-28 11:56 -0.68270 35.18254 30547 ft 519 kts 294°
2026-04-28 11:56 -0.66842 35.14925 30731 ft 520 kts 294°
2026-04-28 11:56 -0.65427 35.11627 30936 ft 522 kts 294°
2026-04-28 11:57 -0.63979 35.08254 31107 ft 523 kts 294°
2026-04-28 11:57 -0.62569 35.04966 31289 ft 524 kts 294°
2026-04-28 11:57 -0.61129 35.01612 31491 ft 525 kts 294°
2026-04-28 11:57 -0.59694 34.98266 31735 ft 525 kts 294°
2026-04-28 11:58 -0.58257 34.94919 31923 ft 526 kts 294°
2026-04-28 11:58 -0.56802 34.91528 31979 ft 529 kts 294°
2026-04-28 11:58 -0.53918 34.84807 31958 ft 526 kts 293°
2026-04-28 11:59 -0.51056 34.78140 31950 ft 524 kts 293°
2026-04-28 11:59 -0.48189 34.71459 31938 ft 523 kts 293°
2026-04-28 12:00 -0.45324 34.64785 31926 ft 522 kts 293°
2026-04-28 12:00 -0.42483 34.58165 31921 ft 522 kts 293°
2026-04-28 12:01 -0.39626 34.51509 31917 ft 522 kts 293°
2026-04-28 12:01 -0.36781 34.44847 31913 ft 521 kts 293°
2026-04-28 12:02 -0.33977 34.38183 31915 ft 521 kts 293°
2026-04-28 12:02 -0.31158 34.31558 31918 ft 522 kts 293°
2026-04-28 12:03 -0.28334 34.24871 31921 ft 523 kts 293°
2026-04-28 12:03 -0.25495 34.18180 31923 ft 522 kts 293°
2026-04-28 12:04 -0.22681 34.11530 31920 ft 522 kts 293°
2026-04-28 12:04 -0.19853 34.04854 31920 ft 522 kts 293°
2026-04-28 12:05 -0.17164 33.98147 31893 ft 522 kts 285°
2026-04-28 12:05 -0.15994 33.90972 31938 ft 522 kts 276°
2026-04-28 12:06 -0.15007 33.83789 31937 ft 522 kts 279°
2026-04-28 12:06 -0.13920 33.76660 31940 ft 522 kts 277°
2026-04-28 12:07 -0.12930 33.69502 31942 ft 521 kts 278°
2026-04-28 12:07 -0.11856 33.62335 31936 ft 521 kts 278°
2026-04-28 12:08 -0.10846 33.55185 31934 ft 521 kts 278°
2026-04-28 12:08 -0.09790 33.48016 31931 ft 520 kts 278°
2026-04-28 12:09 -0.08771 33.40907 31929 ft 519 kts 278°
2026-04-28 12:09 -0.07732 33.33773 31923 ft 520 kts 278°
2026-04-28 12:10 -0.06705 33.26667 31928 ft 520 kts 278°
2026-04-28 12:10 -0.05661 33.19471 31923 ft 520 kts 278°
2026-04-28 12:11 -0.04633 33.12368 31921 ft 521 kts 278°
2026-04-28 12:11 -0.03599 33.05232 31921 ft 520 kts 278°
2026-04-28 12:12 -0.02562 32.98074 31922 ft 519 kts 278°
2026-04-28 12:12 -0.01531 32.90951 31920 ft 520 kts 278°
2026-04-28 12:13 -0.00492 32.83784 31926 ft 520 kts 278°
2026-04-28 12:13 0.00533 32.76707 31934 ft 519 kts 278°
2026-04-28 12:14 0.01568 32.69566 31971 ft 520 kts 278°
2026-04-28 12:14 0.02606 32.62394 32007 ft 520 kts 278°
2026-04-28 12:15 0.03641 32.55257 32040 ft 519 kts 278°
2026-04-28 12:15 0.04669 32.48167 32051 ft 520 kts 278°
2026-04-28 12:16 0.05472 32.44635 32030 ft 520 kts 289°
2026-04-28 12:16 0.06910 32.41327 32032 ft 520 kts 299°
2026-04-28 12:16 0.11010 32.35394 32050 ft 520 kts 307°
2026-04-28 12:17 0.15126 32.29456 32015 ft 521 kts 302°
2026-04-28 12:17 0.19145 32.23443 31976 ft 520 kts 306°
2026-04-28 12:18 0.23238 32.17560 31940 ft 520 kts 304°
2026-04-28 12:18 0.27270 32.11551 31922 ft 520 kts 305°
2026-04-28 12:19 0.31374 32.05608 31918 ft 520 kts 304°
2026-04-28 12:19 0.35428 31.99604 31913 ft 520 kts 304°
2026-04-28 12:20 0.39477 31.93664 31920 ft 521 kts 304°
2026-04-28 12:20 0.43543 31.87666 31915 ft 521 kts 304°
2026-04-28 12:21 0.47613 31.81680 31916 ft 521 kts 304°
2026-04-28 12:21 0.51679 31.75691 31916 ft 521 kts 304°
2026-04-28 12:22 0.55744 31.69707 31915 ft 521 kts 304°
2026-04-28 12:22 0.59795 31.63743 31921 ft 521 kts 304°
2026-04-28 12:23 0.63867 31.57746 31925 ft 522 kts 304°
2026-04-28 12:23 0.67915 31.51791 31922 ft 522 kts 304°
2026-04-28 12:24 0.72005 31.45818 31919 ft 520 kts 304°
2026-04-28 12:24 0.76079 31.39843 31921 ft 520 kts 304°
2026-04-28 12:25 0.79892 31.34265 31916 ft 520 kts 304°
2026-04-28 12:25 0.83971 31.28289 31916 ft 519 kts 304°
2026-04-28 12:26 0.88017 31.22363 31912 ft 520 kts 304°
2026-04-28 12:26 0.92087 31.16404 31912 ft 520 kts 304°
2026-04-28 12:27 0.96126 31.10488 31913 ft 519 kts 304°
2026-04-28 12:27 1.00200 31.04521 31909 ft 519 kts 304°
2026-04-28 12:28 1.04282 30.98540 31911 ft 520 kts 304°
2026-04-28 12:28 1.08335 30.92604 31908 ft 521 kts 304°
2026-04-28 12:29 1.14463 30.83626 31910 ft 521 kts 304°
2026-04-28 12:30 1.18525 30.77676 31903 ft 522 kts 304°
2026-04-28 12:30 1.22598 30.71708 31900 ft 523 kts 304°
2026-04-28 12:31 1.26702 30.65695 31895 ft 522 kts 304°
2026-04-28 12:31 1.30853 30.59741 31899 ft 522 kts 306°
2026-04-28 12:32 1.35017 30.53818 31902 ft 521 kts 305°
2026-04-28 12:32 1.38458 30.48865 31909 ft 522 kts 306°
2026-04-28 12:33 1.42615 30.42952 31911 ft 522 kts 305°
2026-04-28 12:33 1.47347 30.36165 31920 ft 521 kts 306°
2026-04-28 12:34 1.50815 30.31219 31924 ft 521 kts 305°
2026-04-28 12:34 1.55640 30.24310 31931 ft 521 kts 305°
2026-04-28 12:35 1.59451 30.19628 31928 ft 520 kts 312°
2026-04-28 12:35 1.65044 30.13366 31923 ft 519 kts 311°
2026-04-28 12:36 1.69769 30.07917 31926 ft 519 kts 312°
2026-04-28 12:36 1.74547 30.02524 31920 ft 519 kts 312°
2026-04-28 12:37 1.79274 29.97107 31919 ft 519 kts 312°
2026-04-28 12:37 1.83253 29.92593 31915 ft 518 kts 312°
2026-04-28 12:38 1.87981 29.87198 31914 ft 519 kts 311°
2026-04-28 12:38 1.92747 29.81774 31917 ft 519 kts 312°
2026-04-28 12:39 1.98388 29.75549 31914 ft 520 kts 313°
2026-04-28 12:39 2.03196 29.70175 31918 ft 519 kts 313°
2026-04-28 12:40 2.08037 29.64830 31914 ft 519 kts 313°
2026-04-28 12:40 2.12065 29.60356 31912 ft 518 kts 313°
2026-04-28 12:41 2.16876 29.55016 31908 ft 517 kts 313°
2026-04-28 12:41 2.21674 29.49699 31904 ft 517 kts 313°
2026-04-28 12:42 2.26527 29.44322 31906 ft 518 kts 313°
2026-04-28 12:42 2.31353 29.38990 31906 ft 518 kts 313°
2026-04-28 12:43 2.36154 29.33671 31906 ft 517 kts 313°
2026-04-28 12:43 2.40981 29.28333 31908 ft 518 kts 313°
2026-04-28 12:44 2.45786 29.23010 31911 ft 519 kts 313°
2026-04-28 12:44 2.50657 29.17621 31916 ft 520 kts 313°
2026-04-28 12:45 2.55459 29.12303 31910 ft 519 kts 313°
2026-04-28 12:45 2.60300 29.06943 31910 ft 519 kts 313°
2026-04-28 12:46 2.65150 29.01572 31910 ft 520 kts 313°
2026-04-28 12:46 2.69967 28.96237 31906 ft 520 kts 313°
2026-04-28 12:47 2.74836 28.90844 31905 ft 520 kts 313°
2026-04-28 12:47 2.79623 28.85540 31909 ft 519 kts 313°
2026-04-28 12:48 2.84492 28.80146 31905 ft 518 kts 313°
2026-04-28 12:48 2.89293 28.74825 31902 ft 519 kts 313°
2026-04-28 12:49 2.94128 28.69468 31904 ft 520 kts 313°
2026-04-28 12:49 2.98970 28.64103 31902 ft 519 kts 313°
2026-04-28 12:50 3.03813 28.58735 31902 ft 519 kts 313°
2026-04-28 12:50 3.08637 28.53388 31898 ft 519 kts 313°
2026-04-28 12:51 3.13476 28.48023 31897 ft 518 kts 313°
2026-04-28 12:51 3.18308 28.42666 31897 ft 518 kts 313°
2026-04-28 12:52 3.23108 28.37343 31895 ft 519 kts 313°
2026-04-28 12:52 3.27936 28.31987 31895 ft 519 kts 313°
2026-04-28 12:53 3.32755 28.26642 31891 ft 518 kts 313°
2026-04-28 12:53 3.37575 28.21294 31890 ft 518 kts 313°
2026-04-28 12:54 3.42398 28.15942 31892 ft 518 kts 313°
2026-04-28 12:54 3.47234 28.10575 31891 ft 518 kts 313°
2026-04-28 12:55 3.52026 28.05256 31886 ft 518 kts 313°
2026-04-28 12:55 3.56853 27.99897 31892 ft 519 kts 313°
2026-04-28 12:56 3.61691 27.94524 31883 ft 520 kts 313°
2026-04-28 12:56 3.66539 27.89140 31886 ft 519 kts 313°
2026-04-28 12:57 3.71365 27.83779 31882 ft 519 kts 313°
2026-04-28 12:57 3.76202 27.78406 31881 ft 519 kts 313°
2026-04-28 12:58 3.81002 27.73072 31876 ft 519 kts 313°
2026-04-28 12:58 3.85832 27.67704 31875 ft 518 kts 313°
2026-04-28 12:59 3.90638 27.62362 31870 ft 518 kts 313°
2026-04-28 12:59 3.95442 27.57021 31870 ft 518 kts 313°
2026-04-28 13:00 4.00260 27.51664 31864 ft 518 kts 313°
2026-04-28 13:00 4.05075 27.46307 31864 ft 518 kts 313°
2026-04-28 13:01 4.09807 27.41043 31863 ft 518 kts 313°
2026-04-28 13:01 4.14600 27.35711 31860 ft 517 kts 313°
2026-04-28 13:02 4.19406 27.30363 31865 ft 518 kts 313°
2026-04-28 13:02 4.24236 27.24987 31863 ft 519 kts 313°
2026-04-28 13:03 4.29067 27.19608 31871 ft 519 kts 313°
2026-04-28 13:03 4.33896 27.14231 31863 ft 519 kts 313°
2026-04-28 13:04 4.38723 27.08854 31859 ft 518 kts 313°
2026-04-28 13:04 4.43516 27.03515 31858 ft 518 kts 313°
2026-04-28 13:05 4.48332 26.98149 31855 ft 519 kts 313°
2026-04-28 13:05 4.53169 26.92759 31858 ft 518 kts 313°
2026-04-28 13:06 4.57952 26.87427 31858 ft 518 kts 313°
2026-04-28 13:06 4.62777 26.82047 31861 ft 519 kts 313°
2026-04-28 13:07 4.67601 26.76667 31859 ft 519 kts 313°
2026-04-28 13:07 4.72420 26.71292 31860 ft 518 kts 313°
2026-04-28 13:08 4.77239 26.65916 31858 ft 519 kts 313°
2026-04-28 13:08 4.82064 26.60531 31861 ft 518 kts 313°
2026-04-28 13:09 4.86881 26.55155 31860 ft 519 kts 313°
2026-04-28 13:09 4.91682 26.49794 31863 ft 520 kts 313°
2026-04-28 13:10 4.96502 26.44412 31859 ft 520 kts 313°
2026-04-28 13:10 5.01326 26.39023 31860 ft 519 kts 313°
2026-04-28 13:11 5.06166 26.33616 31863 ft 520 kts 313°
2026-04-28 13:11 5.10951 26.28268 31863 ft 520 kts 313°
2026-04-28 13:12 5.15789 26.22860 31862 ft 520 kts 313°
2026-04-28 13:12 5.20609 26.17471 31862 ft 520 kts 313°
2026-04-28 13:13 5.25444 26.12064 31861 ft 519 kts 313°
2026-04-28 13:13 5.30253 26.06704 31864 ft 520 kts 313°
2026-04-28 13:14 5.35099 26.01306 31866 ft 521 kts 313°
2026-04-28 13:14 5.39831 25.96027 31865 ft 521 kts 313°
2026-04-28 13:15 5.44682 25.90620 31868 ft 520 kts 313°
2026-04-28 13:15 5.49484 25.85261 31866 ft 520 kts 313°
2026-04-28 13:16 5.54316 25.79872 31867 ft 520 kts 313°
2026-04-28 13:16 5.59166 25.74457 31867 ft 520 kts 313°
2026-04-28 13:17 5.63993 25.69070 31867 ft 520 kts 313°
2026-04-28 13:17 5.68847 25.63650 31866 ft 521 kts 313°
2026-04-28 13:18 5.73681 25.58250 31870 ft 521 kts 313°
2026-04-28 13:18 5.78485 25.52883 31866 ft 521 kts 313°
2026-04-28 13:19 5.83326 25.47473 31865 ft 521 kts 313°
2026-04-28 13:19 5.88158 25.42072 31862 ft 522 kts 313°
2026-04-28 13:20 5.93000 25.36658 31863 ft 522 kts 313°
2026-04-28 13:20 5.97855 25.31227 31859 ft 523 kts 313°
2026-04-28 13:21 6.02725 25.25779 31855 ft 522 kts 313°
2026-04-28 13:21 6.07568 25.20359 31859 ft 523 kts 313°
2026-04-28 13:22 6.12397 25.14953 31859 ft 523 kts 313°
2026-04-28 13:22 6.17241 25.09530 31857 ft 522 kts 313°
2026-04-28 13:23 6.22104 25.04082 31862 ft 523 kts 313°
2026-04-28 13:23 6.26957 24.98645 31860 ft 523 kts 313°
2026-04-28 13:24 6.31785 24.93233 31858 ft 522 kts 313°
2026-04-28 13:24 6.36623 24.87810 31859 ft 522 kts 313°
2026-04-28 13:25 6.41465 24.82379 31859 ft 522 kts 313°
2026-04-28 13:25 6.46330 24.76921 31863 ft 522 kts 313°
2026-04-28 13:26 6.51177 24.71483 31863 ft 523 kts 313°
2026-04-28 13:26 6.55987 24.66083 31864 ft 523 kts 313°
2026-04-28 13:27 6.60838 24.60637 31864 ft 522 kts 313°
2026-04-28 13:27 6.65686 24.55192 31864 ft 522 kts 313°
2026-04-28 13:28 6.70527 24.49751 31862 ft 522 kts 313°
2026-04-28 13:28 6.75340 24.44343 31865 ft 522 kts 313°
2026-04-28 13:29 6.80183 24.38897 31858 ft 522 kts 313°
2026-04-28 13:29 6.85016 24.33462 31861 ft 522 kts 313°
2026-04-28 13:30 6.89860 24.28012 31859 ft 521 kts 313°
2026-04-28 13:30 6.94653 24.22619 31860 ft 520 kts 313°
2026-04-28 13:31 7.01884 24.14477 31856 ft 519 kts 313°
2026-04-28 13:31 7.06668 24.09088 31857 ft 520 kts 313°
2026-04-28 13:32 7.11482 24.03664 31861 ft 520 kts 313°
2026-04-28 13:32 7.16296 23.98239 31862 ft 520 kts 313°
2026-04-28 13:33 7.21125 23.92794 31865 ft 520 kts 313°
2026-04-28 13:33 7.25913 23.87394 31861 ft 520 kts 313°
2026-04-28 13:34 7.30728 23.81961 31861 ft 521 kts 313°
2026-04-28 13:34 7.35536 23.76534 31858 ft 520 kts 313°
2026-04-28 13:35 7.40350 23.71098 31855 ft 519 kts 313°
2026-04-28 13:35 7.45163 23.65662 31857 ft 519 kts 313°
2026-04-28 13:36 7.49939 23.60265 31856 ft 518 kts 313°
2026-04-28 13:36 7.54733 23.54846 31854 ft 518 kts 313°
2026-04-28 13:37 7.59510 23.49443 31851 ft 516 kts 313°
2026-04-28 13:37 7.64283 23.44043 31850 ft 516 kts 312°
2026-04-28 13:38 7.69032 23.38669 31849 ft 516 kts 312°
2026-04-28 13:38 7.73797 23.33275 31848 ft 516 kts 312°
2026-04-28 13:39 7.78573 23.27866 31847 ft 516 kts 313°
2026-04-28 13:39 7.83353 23.22451 31849 ft 517 kts 312°
2026-04-28 13:40 7.88099 23.17071 31850 ft 517 kts 313°
2026-04-28 13:40 7.92882 23.11650 31849 ft 517 kts 313°
2026-04-28 13:41 7.97668 23.06220 31846 ft 518 kts 313°
2026-04-28 13:41 8.02417 23.00833 31848 ft 518 kts 313°
2026-04-28 13:42 8.07202 22.95401 31847 ft 518 kts 313°
2026-04-28 13:42 8.11991 22.89964 31850 ft 519 kts 313°
2026-04-28 13:43 8.16841 22.84588 31832 ft 518 kts 318°
2026-04-28 13:43 8.22253 22.79831 31840 ft 517 kts 320°
2026-04-28 13:44 8.27649 22.75017 31843 ft 517 kts 319°
2026-04-28 13:44 8.33030 22.70225 31845 ft 517 kts 320°
2026-04-28 13:45 8.38437 22.65426 31844 ft 516 kts 320°
2026-04-28 13:45 8.43781 22.60652 31842 ft 516 kts 320°
2026-04-28 13:46 8.49160 22.55877 31842 ft 515 kts 320°
2026-04-28 13:46 8.54535 22.51075 31837 ft 515 kts 320°
2026-04-28 13:47 8.59910 22.46293 31835 ft 515 kts 320°
2026-04-28 13:47 8.65244 22.41531 31834 ft 515 kts 320°
2026-04-28 13:48 8.70641 22.36719 31828 ft 514 kts 319°
2026-04-28 13:48 8.75997 22.31938 31825 ft 514 kts 320°
2026-04-28 13:49 8.81335 22.27173 31823 ft 514 kts 319°
2026-04-28 13:49 8.86680 22.22399 31820 ft 514 kts 319°
2026-04-28 13:50 8.92005 22.17641 31818 ft 514 kts 319°
2026-04-28 13:50 8.97364 22.12851 31818 ft 514 kts 319°
2026-04-28 13:51 9.02718 22.08062 31815 ft 514 kts 319°
2026-04-28 13:51 9.08070 22.03276 31813 ft 514 kts 319°
2026-04-28 13:52 9.13435 21.98473 31811 ft 514 kts 319°
2026-04-28 13:52 9.18781 21.93688 31812 ft 514 kts 319°
2026-04-28 13:53 9.24111 21.88913 31812 ft 515 kts 319°
2026-04-28 13:53 9.29467 21.84113 31810 ft 515 kts 319°
2026-04-28 13:54 9.34623 21.79493 33294 ft 515 kts 318°
2026-04-28 13:54 9.37417 21.76988 33146 ft 508 kts 318°
2026-04-28 13:54 9.40006 21.74663 32999 ft 501 kts 318°
2026-04-28 13:55 9.42600 21.72335 32856 ft 497 kts 318°
2026-04-28 13:55 9.45174 21.70026 32704 ft 497 kts 318°
2026-04-28 13:55 9.47777 21.67691 32589 ft 497 kts 318°
2026-04-28 13:55 9.50361 21.65371 32464 ft 499 kts 318°
2026-04-28 13:56 9.52966 21.63032 32339 ft 499 kts 318°
2026-04-28 13:56 9.55574 21.60716 32227 ft 500 kts 319°
2026-04-28 13:56 9.58199 21.58468 32124 ft 500 kts 320°
2026-04-28 13:56 9.60858 21.56194 32001 ft 499 kts 319°
2026-04-28 13:57 9.66097 21.51591 32009 ft 501 kts 319°
2026-04-28 13:57 9.71407 21.46991 32006 ft 502 kts 319°
2026-04-28 13:58 9.76690 21.42378 32010 ft 502 kts 319°
2026-04-28 13:58 9.81991 21.37762 32008 ft 501 kts 319°
2026-04-28 13:59 9.87239 21.33186 32008 ft 501 kts 319°
2026-04-28 13:59 9.92513 21.28585 32008 ft 501 kts 319°
2026-04-28 14:00 9.97800 21.23974 32007 ft 500 kts 319°
2026-04-28 14:00 10.03039 21.19398 32006 ft 500 kts 319°
2026-04-28 14:01 10.08310 21.14796 32007 ft 501 kts 319°
2026-04-28 14:01 10.13591 21.10180 32012 ft 502 kts 319°
2026-04-28 14:02 10.18794 21.05633 32012 ft 503 kts 319°
2026-04-28 14:02 10.24102 21.00991 32008 ft 502 kts 319°
2026-04-28 14:03 10.29386 20.96368 32004 ft 501 kts 319°
2026-04-28 14:03 10.34622 20.91785 32000 ft 500 kts 319°
2026-04-28 14:04 10.37257 20.89476 30535 ft 500 kts 320°
2026-04-28 14:04 10.39713 20.87325 30655 ft 496 kts 320°
2026-04-28 14:04 10.42337 20.85028 30773 ft 499 kts 320°
2026-04-28 14:04 10.44970 20.82721 30905 ft 503 kts 320°
2026-04-28 14:05 10.47635 20.80384 31032 ft 506 kts 320°
2026-04-28 14:05 10.50278 20.78067 31156 ft 508 kts 319°
2026-04-28 14:05 10.52956 20.75719 31284 ft 510 kts 319°
2026-04-28 14:05 10.55635 20.73369 31406 ft 510 kts 319°
2026-04-28 14:06 10.58325 20.71010 31520 ft 509 kts 319°
2026-04-28 14:06 10.61006 20.68657 31644 ft 509 kts 319°
2026-04-28 14:06 10.63682 20.66308 31750 ft 509 kts 319°
2026-04-28 14:06 10.66355 20.63962 31754 ft 510 kts 319°
2026-04-28 14:07 10.71719 20.59250 31752 ft 507 kts 319°
2026-04-28 14:07 10.77025 20.54588 31749 ft 507 kts 319°
2026-04-28 14:08 10.82355 20.49903 31751 ft 507 kts 319°
2026-04-28 14:08 10.87702 20.45201 31751 ft 507 kts 319°
2026-04-28 14:09 10.93027 20.40514 31748 ft 507 kts 319°
2026-04-28 14:09 10.98362 20.35818 31751 ft 507 kts 319°
2026-04-28 14:10 11.03670 20.31142 31767 ft 508 kts 319°
2026-04-28 14:10 11.09006 20.26440 31765 ft 508 kts 319°
2026-04-28 14:11 11.14327 20.21748 31761 ft 508 kts 319°
2026-04-28 14:11 11.19666 20.17039 31763 ft 509 kts 319°
2026-04-28 14:12 11.25016 20.12317 31765 ft 509 kts 319°
2026-04-28 14:12 11.30369 20.07589 31763 ft 508 kts 319°
2026-04-28 14:13 11.35679 20.02898 31760 ft 509 kts 319°
2026-04-28 14:13 11.41018 19.98178 31753 ft 508 kts 319°
2026-04-28 14:14 11.46362 19.93453 31756 ft 509 kts 319°
2026-04-28 14:14 11.51709 19.88721 31760 ft 510 kts 319°
2026-04-28 14:15 11.57081 19.83965 31759 ft 509 kts 319°
2026-04-28 14:15 11.62320 19.79325 31756 ft 508 kts 319°
2026-04-28 14:16 11.67610 19.74610 31756 ft 508 kts 319°
2026-04-28 14:16 11.72904 19.69828 31753 ft 508 kts 319°
2026-04-28 14:17 11.78207 19.65082 31754 ft 508 kts 319°
2026-04-28 14:17 11.83509 19.60303 31755 ft 509 kts 319°
2026-04-28 14:18 11.88783 19.55566 31754 ft 508 kts 319°
2026-04-28 14:18 11.94083 19.50792 31754 ft 508 kts 319°
2026-04-28 14:19 11.99385 19.46019 31761 ft 508 kts 319°
2026-04-28 14:19 12.04689 19.41239 31758 ft 508 kts 319°
2026-04-28 14:20 12.09948 19.36498 31759 ft 507 kts 319°
2026-04-28 14:20 12.10835 19.35699 31757 ft 507 kts 319°
2026-04-28 14:21 12.15572 19.31425 31755 ft 507 kts 319°
2026-04-28 14:21 12.20805 19.26702 31754 ft 511 kts 319°
2026-04-28 14:22 12.26278 19.21760 31777 ft 523 kts 319°
2026-04-28 14:22 12.31644 19.16912 31983 ft 530 kts 319°
2026-04-28 14:23 12.34401 19.14420 32188 ft 530 kts 319°
2026-04-28 14:23 12.37146 19.11938 32439 ft 530 kts 319°
2026-04-28 14:23 12.39924 19.09424 32700 ft 530 kts 319°
2026-04-28 14:23 12.42684 19.06927 32964 ft 530 kts 319°
2026-04-28 14:24 12.45444 19.04430 33216 ft 530 kts 319°
2026-04-28 14:24 12.48213 19.01923 33485 ft 530 kts 319°
2026-04-28 14:24 12.50936 18.99457 33710 ft 531 kts 318°
2026-04-28 14:24 12.53747 18.96911 33739 ft 534 kts 318°
2026-04-28 14:25 12.59234 18.91939 33740 ft 529 kts 318°
2026-04-28 14:25 12.64746 18.86940 33746 ft 529 kts 318°
2026-04-28 14:26 12.70254 18.81942 33740 ft 529 kts 318°
2026-04-28 14:26 12.75778 18.76927 33743 ft 531 kts 318°
2026-04-28 14:27 12.81227 18.71976 33743 ft 530 kts 318°
2026-04-28 14:27 12.86717 18.66986 33743 ft 531 kts 318°
2026-04-28 14:28 12.92241 18.61962 33743 ft 532 kts 318°
2026-04-28 14:28 12.97779 18.56922 33746 ft 532 kts 318°
2026-04-28 14:29 13.03272 18.51919 33745 ft 532 kts 318°
2026-04-28 14:29 13.08814 18.46869 33745 ft 532 kts 318°
2026-04-28 14:30 13.14339 18.41831 33745 ft 532 kts 318°
2026-04-28 14:30 13.19866 18.36788 33746 ft 531 kts 318°
2026-04-28 14:31 13.25385 18.31749 33749 ft 531 kts 318°
2026-04-28 14:31 13.30912 18.26701 33752 ft 531 kts 318°
2026-04-28 14:32 13.36400 18.21684 33755 ft 530 kts 318°
2026-04-28 14:32 13.41899 18.16654 33756 ft 530 kts 318°
2026-04-28 14:33 13.47386 18.11631 33759 ft 530 kts 318°
2026-04-28 14:33 13.52911 18.06571 33761 ft 529 kts 318°
2026-04-28 14:34 13.61116 17.99050 33759 ft 529 kts 318°
2026-04-28 14:35 13.66606 17.94014 33764 ft 528 kts 317°
2026-04-28 14:35 13.72081 17.88987 33762 ft 527 kts 317°
2026-04-28 14:36 13.77507 17.84004 33759 ft 527 kts 317°
2026-04-28 14:36 13.82969 17.78982 33763 ft 527 kts 317°
2026-04-28 14:37 13.88452 17.73939 33764 ft 527 kts 317°
2026-04-28 14:37 13.93919 17.68909 33767 ft 527 kts 317°
2026-04-28 14:38 13.99376 17.63881 33767 ft 527 kts 317°
2026-04-28 14:38 14.04806 17.58877 33772 ft 528 kts 317°
2026-04-28 14:39 14.10276 17.53832 33775 ft 529 kts 316°
2026-04-28 14:39 14.15755 17.48776 33778 ft 529 kts 316°
2026-04-28 14:40 14.21239 17.43713 33779 ft 529 kts 316°
2026-04-28 14:40 14.26684 17.38684 33783 ft 530 kts 316°
2026-04-28 14:41 14.32148 17.33624 33787 ft 529 kts 316°
2026-04-28 14:41 14.37652 17.28538 33792 ft 529 kts 316°
2026-04-28 14:42 14.43135 17.23455 33789 ft 530 kts 316°
2026-04-28 14:42 14.48578 17.18414 33797 ft 530 kts 316°
2026-04-28 14:43 14.54066 17.13324 33792 ft 530 kts 316°
2026-04-28 14:43 14.59537 17.08247 33797 ft 530 kts 316°
2026-04-28 14:44 14.65032 17.03144 33799 ft 531 kts 316°
2026-04-28 14:44 14.70531 16.98036 33802 ft 531 kts 316°
2026-04-28 14:45 14.75981 16.92967 33806 ft 531 kts 316°
2026-04-28 14:45 14.81463 16.87860 33808 ft 531 kts 316°
2026-04-28 14:46 14.86937 16.82766 33810 ft 531 kts 316°
2026-04-28 14:46 14.92390 16.77684 33810 ft 531 kts 316°
2026-04-28 14:47 14.97881 16.72562 33812 ft 531 kts 316°
2026-04-28 14:47 15.03352 16.67456 33809 ft 531 kts 316°
2026-04-28 14:48 15.08844 16.62326 33814 ft 531 kts 316°
2026-04-28 14:48 15.14323 16.57207 33816 ft 530 kts 316°
2026-04-28 14:49 15.19750 16.52125 33818 ft 530 kts 316°
2026-04-28 14:49 15.25209 16.47024 33818 ft 529 kts 316°
2026-04-28 14:50 15.30667 16.41902 33819 ft 527 kts 316°
2026-04-28 14:50 15.36094 16.36821 33820 ft 527 kts 316°
2026-04-28 14:51 15.41506 16.31738 33825 ft 527 kts 316°
2026-04-28 14:51 15.46931 16.26653 33829 ft 526 kts 316°
2026-04-28 14:52 15.52346 16.21559 33830 ft 526 kts 316°
2026-04-28 14:52 15.57740 16.16492 33831 ft 525 kts 316°
2026-04-28 14:53 15.63178 16.11373 33834 ft 525 kts 316°
2026-04-28 14:53 15.68552 16.06313 33832 ft 524 kts 316°
2026-04-28 14:54 15.73921 16.01256 33832 ft 524 kts 316°
2026-04-28 14:54 15.79318 15.96164 33833 ft 523 kts 316°
2026-04-28 14:55 15.84720 15.91067 33834 ft 523 kts 316°
2026-04-28 14:55 15.90059 15.86024 33835 ft 522 kts 316°
2026-04-28 14:56 15.95426 15.80952 33836 ft 522 kts 316°
2026-04-28 14:56 16.00783 15.75885 33834 ft 521 kts 316°
2026-04-28 14:57 16.06118 15.70835 33837 ft 521 kts 316°
2026-04-28 14:57 16.11464 15.65770 33836 ft 520 kts 316°
2026-04-28 14:58 16.16828 15.60686 33837 ft 520 kts 316°
2026-04-28 14:58 16.22161 15.55627 33839 ft 519 kts 316°
2026-04-28 14:59 16.27475 15.50581 33840 ft 519 kts 316°
2026-04-28 14:59 16.32797 15.45524 33836 ft 519 kts 316°
2026-04-28 15:00 16.38120 15.40463 33842 ft 518 kts 316°
2026-04-28 15:00 16.43433 15.35406 33842 ft 518 kts 316°
2026-04-28 15:01 16.48752 15.30341 33841 ft 518 kts 316°
2026-04-28 15:01 16.54034 15.25306 33846 ft 517 kts 316°
2026-04-28 15:02 16.59336 15.20249 33842 ft 517 kts 316°
2026-04-28 15:02 16.64629 15.15196 33849 ft 516 kts 316°
2026-04-28 15:03 16.69853 15.10206 33848 ft 515 kts 316°
2026-04-28 15:03 16.75208 15.05085 33848 ft 515 kts 316°
2026-04-28 15:04 16.80440 15.00079 33835 ft 514 kts 316°
2026-04-28 15:04 16.85697 14.95045 33841 ft 515 kts 316°
2026-04-28 15:05 16.90986 14.89976 33845 ft 515 kts 316°
2026-04-28 15:05 16.96224 14.84952 33844 ft 514 kts 316°
2026-04-28 15:06 17.01490 14.79898 33845 ft 513 kts 315°
2026-04-28 15:06 17.06754 14.74841 33841 ft 512 kts 315°
2026-04-28 15:07 17.11981 14.69815 33846 ft 511 kts 315°
2026-04-28 15:07 17.17228 14.64768 33848 ft 511 kts 315°
2026-04-28 15:08 17.20915 14.61217 33850 ft 510 kts 315°
2026-04-28 15:08 17.25479 14.56820 33847 ft 510 kts 315°
2026-04-28 15:09 17.29019 14.53407 33855 ft 509 kts 315°
2026-04-28 15:09 17.34176 14.48432 33851 ft 509 kts 315°
2026-04-28 15:10 17.39425 14.43363 33850 ft 509 kts 315°
2026-04-28 15:10 17.44626 14.38337 33854 ft 508 kts 315°
2026-04-28 15:11 17.49796 14.33337 33856 ft 509 kts 315°
2026-04-28 15:11 17.54995 14.28305 33858 ft 508 kts 315°
2026-04-28 15:12 17.60195 14.23267 33865 ft 509 kts 315°
2026-04-28 15:12 17.65382 14.18238 33869 ft 508 kts 315°
2026-04-28 15:13 17.70561 14.13212 33866 ft 508 kts 315°
2026-04-28 15:13 17.75719 14.08204 33869 ft 508 kts 315°
2026-04-28 15:14 17.80902 14.03165 33868 ft 507 kts 314°
2026-04-28 15:14 17.84251 13.99908 33866 ft 507 kts 314°
2026-04-28 15:15 17.89435 13.94863 33865 ft 506 kts 314°
2026-04-28 15:15 17.94543 13.89887 33867 ft 505 kts 314°
2026-04-28 15:16 17.99672 13.84886 33870 ft 504 kts 314°
2026-04-28 15:16 18.04825 13.79859 33868 ft 504 kts 314°
2026-04-28 15:17 18.09959 13.74845 33861 ft 504 kts 314°
2026-04-28 15:17 18.14822 13.70092 33872 ft 504 kts 314°
2026-04-28 15:18 18.19878 13.65146 33872 ft 503 kts 314°
2026-04-28 15:18 18.25008 13.60123 33854 ft 503 kts 314°
2026-04-28 15:19 18.30130 13.55105 33868 ft 503 kts 314°
2026-04-28 15:19 18.35209 13.50125 33856 ft 502 kts 314°
2026-04-28 15:20 18.40298 13.45130 33857 ft 502 kts 314°
2026-04-28 15:20 18.45400 13.40118 33857 ft 502 kts 314°
2026-04-28 15:21 18.50525 13.35080 33859 ft 501 kts 314°
2026-04-28 15:21 18.55597 13.30090 33864 ft 501 kts 314°
2026-04-28 15:22 18.60675 13.25089 33859 ft 501 kts 314°
2026-04-28 15:22 18.65742 13.20094 33864 ft 500 kts 314°
2026-04-28 15:23 18.70850 13.15055 33867 ft 500 kts 314°
2026-04-28 15:23 18.75887 13.10082 33864 ft 499 kts 313°
2026-04-28 15:24 18.80945 13.05084 33869 ft 498 kts 313°
2026-04-28 15:24 18.86004 13.00080 33868 ft 498 kts 313°
2026-04-28 15:25 18.91054 12.95081 33861 ft 497 kts 313°
2026-04-28 15:25 18.96101 12.90081 33862 ft 497 kts 313°
2026-04-28 15:26 19.01672 12.85804 33859 ft 503 kts 325°
2026-04-28 15:26 19.07699 12.82002 33861 ft 504 kts 324°
2026-04-28 15:27 19.13682 12.78190 33862 ft 503 kts 324°
2026-04-28 15:27 19.19669 12.74392 33858 ft 503 kts 324°
2026-04-28 15:28 19.25626 12.70600 33860 ft 503 kts 324°
2026-04-28 15:28 19.30675 12.67387 33857 ft 503 kts 324°
2026-04-28 15:29 19.37597 12.62978 33860 ft 503 kts 324°
2026-04-28 15:29 19.43609 12.59144 33857 ft 502 kts 324°
2026-04-28 15:30 19.49524 12.55370 33853 ft 502 kts 324°
2026-04-28 15:30 19.54539 12.52166 33856 ft 501 kts 324°
2026-04-28 15:31 19.61485 12.47726 33852 ft 501 kts 324°
2026-04-28 15:31 19.67476 12.43892 33853 ft 501 kts 324°
2026-04-28 15:32 19.73403 12.40096 33852 ft 500 kts 324°
2026-04-28 15:32 19.79347 12.36286 33852 ft 500 kts 324°
2026-04-28 15:33 19.85301 12.32465 33855 ft 499 kts 324°
2026-04-28 15:33 19.90245 12.29291 33854 ft 499 kts 324°
2026-04-28 15:34 19.97146 12.24855 33854 ft 499 kts 324°
2026-04-28 15:34 20.03071 12.21045 33853 ft 499 kts 323°
2026-04-28 15:35 20.08020 12.17858 33852 ft 498 kts 323°
2026-04-28 15:35 20.17874 12.11507 33853 ft 498 kts 323°
2026-04-28 15:36 20.22769 12.08348 33852 ft 498 kts 323°
2026-04-28 15:36 20.28684 12.04528 33848 ft 498 kts 323°
2026-04-28 15:37 20.34591 12.00710 33850 ft 497 kts 323°
2026-04-28 15:37 20.40464 11.96910 33851 ft 496 kts 323°
2026-04-28 15:38 20.46363 11.93090 33853 ft 496 kts 323°
2026-04-28 15:38 20.52245 11.89278 33849 ft 496 kts 323°
2026-04-28 15:39 20.58166 11.85437 33849 ft 496 kts 323°
2026-04-28 15:39 20.63991 11.81651 33849 ft 496 kts 323°
2026-04-28 15:40 20.69899 11.77810 33850 ft 495 kts 323°
2026-04-28 15:40 20.75789 11.73976 33850 ft 495 kts 323°
2026-04-28 15:41 20.81629 11.70172 33849 ft 495 kts 323°
2026-04-28 15:41 20.87503 11.66341 33842 ft 495 kts 322°
2026-04-28 15:42 20.93376 11.62508 33848 ft 494 kts 322°
2026-04-28 15:42 20.99258 11.58665 33844 ft 494 kts 322°
2026-04-28 15:43 21.05067 11.54867 33851 ft 494 kts 322°
2026-04-28 15:43 21.10944 11.51021 33850 ft 494 kts 322°
2026-04-28 15:44 21.16802 11.47184 33853 ft 494 kts 322°
2026-04-28 15:44 21.22679 11.43331 33851 ft 494 kts 322°
2026-04-28 15:45 21.28508 11.39506 33851 ft 494 kts 322°
2026-04-28 15:45 21.34379 11.35650 33848 ft 495 kts 322°
2026-04-28 15:46 21.40224 11.31807 33853 ft 494 kts 322°
2026-04-28 15:46 21.43051 11.29938 35041 ft 497 kts 328°
2026-04-28 15:46 21.46017 11.27989 34890 ft 505 kts 328°
2026-04-28 15:47 21.49056 11.25999 34754 ft 514 kts 328°
2026-04-28 15:47 21.52079 11.24007 34633 ft 519 kts 328°
2026-04-28 15:47 21.55165 11.21966 34514 ft 520 kts 328°
2026-04-28 15:47 21.58235 11.19940 34394 ft 520 kts 328°
2026-04-28 15:48 21.61357 11.17885 34275 ft 522 kts 328°
2026-04-28 15:48 21.64407 11.15873 34160 ft 522 kts 328°
2026-04-28 15:48 21.67502 11.13826 34028 ft 521 kts 328°
2026-04-28 15:48 21.70582 11.11789 34007 ft 519 kts 328°
2026-04-28 15:49 21.76748 11.07714 34012 ft 521 kts 328°
2026-04-28 15:49 21.82862 11.03665 34012 ft 520 kts 328°
2026-04-28 15:50 21.89033 10.99576 34008 ft 521 kts 328°
2026-04-28 15:50 21.95196 10.95487 34009 ft 521 kts 328°
2026-04-28 15:51 22.01331 10.91413 34011 ft 520 kts 328°
2026-04-28 15:51 22.07489 10.87320 34011 ft 520 kts 328°
2026-04-28 15:52 22.13655 10.83217 34009 ft 520 kts 328°
2026-04-28 15:52 22.19791 10.79129 34010 ft 520 kts 328°
2026-04-28 15:53 22.25967 10.75011 34004 ft 521 kts 328°
2026-04-28 15:53 22.32087 10.70926 34008 ft 521 kts 328°
2026-04-28 15:54 22.38249 10.66809 34008 ft 520 kts 328°
2026-04-28 15:54 22.44396 10.62696 34007 ft 520 kts 328°
2026-04-28 15:55 22.50543 10.58580 34010 ft 520 kts 328°
2026-04-28 15:55 22.56700 10.54453 34008 ft 520 kts 328°
2026-04-28 15:56 22.62809 10.50354 34008 ft 520 kts 328°
2026-04-28 15:56 22.69066 10.46455 34011 ft 521 kts 329°
2026-04-28 15:57 22.75325 10.42494 34009 ft 521 kts 330°
2026-04-28 15:57 22.81635 10.38587 34014 ft 520 kts 329°
2026-04-28 15:58 22.87853 10.34670 34007 ft 520 kts 329°
2026-04-28 15:58 22.94113 10.30763 34007 ft 520 kts 329°
2026-04-28 15:59 23.00369 10.26831 34011 ft 520 kts 329°
2026-04-28 15:59 23.06637 10.22900 34007 ft 520 kts 329°
2026-04-28 16:00 23.12901 10.18961 34009 ft 522 kts 329°
2026-04-28 16:00 23.19153 10.15027 34009 ft 522 kts 329°
2026-04-28 16:01 23.25438 10.11069 34010 ft 522 kts 329°
2026-04-28 16:01 23.31727 10.07102 34010 ft 522 kts 329°
2026-04-28 16:02 23.37946 10.03177 34007 ft 521 kts 329°
2026-04-28 16:02 23.44223 9.99208 34008 ft 521 kts 329°
2026-04-28 16:03 23.50491 9.95243 34006 ft 521 kts 329°
2026-04-28 16:03 23.56737 9.91287 34007 ft 520 kts 329°
2026-04-28 16:04 23.62968 9.87336 34009 ft 520 kts 329°
2026-04-28 16:04 23.69259 9.83342 34006 ft 520 kts 329°
2026-04-28 16:05 23.75464 9.79398 34008 ft 520 kts 329°
2026-04-28 16:05 23.81725 9.75415 34016 ft 522 kts 329°
2026-04-28 16:06 23.84828 9.73439 34275 ft 522 kts 329°
2026-04-28 16:06 23.87949 9.71450 34564 ft 521 kts 329°
2026-04-28 16:06 23.91080 9.69455 34849 ft 521 kts 329°
2026-04-28 16:06 23.94162 9.67488 35119 ft 520 kts 329°
2026-04-28 16:07 23.97250 9.65517 35396 ft 520 kts 329°
2026-04-28 16:07 24.00367 9.63527 35669 ft 519 kts 329°
2026-04-28 16:07 24.06616 9.59533 36001 ft 523 kts 329°
2026-04-28 16:08 24.09771 9.57515 35990 ft 523 kts 329°
2026-04-28 16:08 24.16024 9.53512 35985 ft 520 kts 329°
2026-04-28 16:09 24.25324 9.47549 35995 ft 519 kts 329°
2026-04-28 16:10 24.34637 9.41461 35996 ft 519 kts 328°
2026-04-28 16:10 24.43895 9.35312 35996 ft 519 kts 328°
2026-04-28 16:11 24.56203 9.27111 35989 ft 518 kts 328°
2026-04-28 16:12 24.65399 9.20974 35996 ft 518 kts 328°
2026-04-28 16:13 24.74630 9.14814 35999 ft 518 kts 328°
2026-04-28 16:14 24.86944 9.06572 35999 ft 519 kts 328°
2026-04-28 16:15 24.99255 8.98313 36003 ft 519 kts 328°
2026-04-28 16:15 25.05417 8.94171 36004 ft 518 kts 328°
2026-04-28 16:16 25.14634 8.87968 35998 ft 517 kts 328°
2026-04-28 16:17 25.23788 8.81796 35992 ft 515 kts 328°
2026-04-28 16:17 25.29943 8.77639 35996 ft 516 kts 328°
2026-04-28 16:18 25.36048 8.73512 35999 ft 517 kts 328°
2026-04-28 16:18 25.42185 8.69357 36002 ft 518 kts 328°
2026-04-28 16:19 25.48344 8.65184 36004 ft 519 kts 328°
2026-04-28 16:19 25.54489 8.61014 36005 ft 519 kts 328°
2026-04-28 16:20 25.60604 8.56860 36007 ft 518 kts 328°
2026-04-28 16:20 25.66727 8.52695 36005 ft 517 kts 328°
2026-04-28 16:21 25.72842 8.48531 36002 ft 516 kts 328°
2026-04-28 16:21 25.78955 8.44362 35997 ft 515 kts 328°
2026-04-28 16:22 25.85066 8.40191 35998 ft 516 kts 328°
2026-04-28 16:22 25.91154 8.36029 36002 ft 517 kts 328°
2026-04-28 16:23 25.97274 8.31841 36005 ft 518 kts 328°
2026-04-28 16:23 26.03434 8.27644 36005 ft 518 kts 328°
2026-04-28 16:24 26.09593 8.23562 36009 ft 519 kts 328°
2026-04-28 16:24 26.15753 8.19397 36007 ft 519 kts 328°
2026-04-28 16:25 26.21926 8.15264 36008 ft 518 kts 328°
2026-04-28 16:25 26.28078 8.11115 36003 ft 516 kts 328°
2026-04-28 16:26 26.34228 8.06975 36002 ft 516 kts 328°
2026-04-28 16:26 26.40328 8.02858 36003 ft 517 kts 328°
2026-04-28 16:27 26.46486 7.98698 36005 ft 517 kts 328°
2026-04-28 16:28 26.55710 7.92456 36007 ft 517 kts 328°
2026-04-28 16:28 26.61831 7.88308 36007 ft 518 kts 328°
2026-04-28 16:29 26.71066 7.82039 36011 ft 518 kts 328°
2026-04-28 16:30 26.80324 7.75743 36011 ft 519 kts 328°
2026-04-28 16:30 26.86474 7.71554 36010 ft 519 kts 328°
2026-04-28 16:31 26.92600 7.67375 36006 ft 518 kts 328°
2026-04-28 16:31 26.98734 7.63186 36003 ft 517 kts 328°
2026-04-28 16:32 27.04875 7.58986 36003 ft 516 kts 328°
2026-04-28 16:32 27.14074 7.52686 36002 ft 515 kts 328°
2026-04-28 16:33 27.19120 7.49224 35999 ft 516 kts 328°
2026-04-28 16:33 27.26276 7.44309 36003 ft 517 kts 328°
2026-04-28 16:34 27.32414 7.40087 36005 ft 518 kts 328°
2026-04-28 16:34 27.38517 7.35883 36009 ft 519 kts 328°
2026-04-28 16:35 27.44682 7.31632 36011 ft 518 kts 328°
2026-04-28 16:35 27.50807 7.27402 36009 ft 517 kts 328°
2026-04-28 16:36 27.56939 7.23162 36009 ft 517 kts 328°
2026-04-28 16:36 27.63037 7.18940 36007 ft 516 kts 328°
2026-04-28 16:37 27.69189 7.14674 36005 ft 516 kts 328°
2026-04-28 16:38 27.78323 7.08331 36003 ft 515 kts 328°
2026-04-28 16:38 27.84423 7.04088 36002 ft 515 kts 328°
2026-04-28 16:39 27.90489 6.99862 36006 ft 516 kts 328°
2026-04-28 16:39 27.96607 6.95595 36007 ft 517 kts 328°
2026-04-28 16:40 28.02739 6.91312 36012 ft 518 kts 328°
2026-04-28 16:40 28.08875 6.87021 36009 ft 518 kts 328°
2026-04-28 16:41 28.14480 6.82041 35991 ft 516 kts 311°
2026-04-28 16:41 28.18630 6.75430 36011 ft 516 kts 303°
2026-04-28 16:42 28.22761 6.68778 36015 ft 516 kts 307°
2026-04-28 16:42 28.26942 6.62170 36010 ft 516 kts 304°
2026-04-28 16:43 28.31052 6.55488 36010 ft 516 kts 305°
2026-04-28 16:43 28.35200 6.48905 36012 ft 516 kts 304°
2026-04-28 16:44 28.39300 6.42248 36012 ft 516 kts 305°
2026-04-28 16:44 28.43459 6.35590 36011 ft 515 kts 305°
2026-04-28 16:45 28.47548 6.28964 36011 ft 515 kts 304°
2026-04-28 16:45 28.51673 6.22314 36010 ft 515 kts 305°
2026-04-28 16:46 28.55795 6.15631 36011 ft 515 kts 304°
2026-04-28 16:46 28.59915 6.08957 36008 ft 515 kts 304°
2026-04-28 16:47 28.64018 6.02290 36010 ft 515 kts 304°
2026-04-28 16:47 28.68087 5.95673 36009 ft 515 kts 304°
2026-04-28 16:48 28.72191 5.88987 36013 ft 515 kts 304°
2026-04-28 16:48 28.76291 5.82296 36009 ft 514 kts 304°
2026-04-28 16:49 28.80360 5.75649 36010 ft 514 kts 304°
2026-04-28 16:49 28.84446 5.68960 36010 ft 514 kts 304°
2026-04-28 16:50 28.88524 5.62273 36010 ft 514 kts 304°
2026-04-28 16:50 28.92601 5.55579 36010 ft 514 kts 304°
2026-04-28 16:51 28.96692 5.48851 36013 ft 514 kts 304°
2026-04-28 16:51 29.00711 5.42230 36012 ft 514 kts 304°
2026-04-28 16:52 29.04801 5.35481 36010 ft 514 kts 304°
2026-04-28 16:52 29.08857 5.28778 36008 ft 515 kts 304°
2026-04-28 16:53 29.12933 5.22031 36014 ft 516 kts 304°
2026-04-28 16:53 29.16987 5.15310 36010 ft 516 kts 304°
2026-04-28 16:54 29.21075 5.08521 36010 ft 516 kts 304°
2026-04-28 16:54 29.25135 5.01767 36011 ft 516 kts 304°
2026-04-28 16:55 29.29140 4.95164 36007 ft 516 kts 305°
2026-04-28 16:55 29.33250 4.88529 36009 ft 516 kts 304°
2026-04-28 16:56 29.37347 4.81785 36007 ft 516 kts 304°
2026-04-28 16:56 29.41477 4.75057 36007 ft 516 kts 304°
2026-04-28 16:57 29.45582 4.68308 36007 ft 515 kts 304°
2026-04-28 16:57 29.49658 4.61627 36007 ft 515 kts 304°
2026-04-28 16:58 29.53763 4.54870 36006 ft 515 kts 304°
2026-04-28 16:58 29.57853 4.48133 36008 ft 515 kts 304°
2026-04-28 16:59 29.61927 4.41410 36006 ft 515 kts 304°
2026-04-28 16:59 29.66007 4.34667 36007 ft 515 kts 304°
2026-04-28 17:00 29.70094 4.27901 36006 ft 515 kts 304°
2026-04-28 17:00 29.74392 4.21302 36006 ft 515 kts 307°
2026-04-28 17:01 29.78693 4.14778 36006 ft 515 kts 307°
2026-04-28 17:01 29.83051 4.08241 36009 ft 515 kts 307°
2026-04-28 17:02 29.87395 4.01670 36007 ft 515 kts 307°
2026-04-28 17:02 29.91734 3.95116 36007 ft 514 kts 307°
2026-04-28 17:03 29.98232 3.85268 36003 ft 514 kts 307°
2026-04-28 17:03 30.02528 3.78753 36006 ft 514 kts 307°
2026-04-28 17:04 30.08538 3.68518 36005 ft 515 kts 303°
2026-04-28 17:05 30.14539 3.58179 36002 ft 514 kts 303°
2026-04-28 17:06 30.20465 3.47940 36006 ft 514 kts 303°
2026-04-28 17:06 30.26424 3.37597 36004 ft 514 kts 303°
2026-04-28 17:07 30.30356 3.30769 36006 ft 514 kts 303°
2026-04-28 17:07 30.34310 3.23882 36005 ft 515 kts 303°
2026-04-28 17:08 30.38287 3.16950 36010 ft 516 kts 303°
2026-04-28 17:08 30.42244 3.10035 36011 ft 517 kts 303°
2026-04-28 17:09 30.46198 3.03118 36011 ft 516 kts 303°
2026-04-28 17:09 30.50151 2.96189 36010 ft 516 kts 303°
2026-04-28 17:10 30.54118 2.89223 36013 ft 516 kts 303°
2026-04-28 17:10 30.58479 2.82639 36008 ft 516 kts 311°
2026-04-28 17:11 30.63262 2.76519 36007 ft 516 kts 311°
2026-04-28 17:11 30.67975 2.70227 36008 ft 516 kts 311°
2026-04-28 17:12 30.72755 2.63997 36009 ft 516 kts 311°
2026-04-28 17:12 30.77458 2.57766 36009 ft 516 kts 311°
2026-04-28 17:13 30.82209 2.51510 36010 ft 516 kts 311°
2026-04-28 17:13 30.86947 2.45240 36010 ft 516 kts 311°
2026-04-28 17:14 30.91670 2.38985 36009 ft 516 kts 311°
2026-04-28 17:14 30.96410 2.32698 36009 ft 515 kts 311°
2026-04-28 17:15 31.01135 2.26418 36012 ft 515 kts 311°
2026-04-28 17:15 31.05840 2.20159 36012 ft 515 kts 311°
2026-04-28 17:16 31.10536 2.13896 36011 ft 515 kts 311°
2026-04-28 17:16 31.15229 2.07632 36010 ft 515 kts 311°
2026-04-28 17:17 31.19979 2.01277 36012 ft 515 kts 311°
2026-04-28 17:17 31.24654 1.95015 36010 ft 515 kts 310°
2026-04-28 17:18 31.29355 1.88706 36010 ft 515 kts 310°
2026-04-28 17:18 31.34072 1.82366 36011 ft 515 kts 310°
2026-04-28 17:19 31.38735 1.76088 36013 ft 515 kts 310°
2026-04-28 17:19 31.43431 1.69755 36011 ft 515 kts 310°
2026-04-28 17:20 31.47320 1.64503 36007 ft 515 kts 310°
2026-04-28 17:20 31.52811 1.57074 36008 ft 515 kts 310°
2026-04-28 17:21 31.57471 1.50766 36013 ft 514 kts 311°
2026-04-28 17:22 31.65501 1.42399 36011 ft 516 kts 319°
2026-04-28 17:22 31.70886 1.36800 36012 ft 516 kts 318°
2026-04-28 17:23 31.79005 1.28502 36011 ft 516 kts 318°
2026-04-28 17:23 31.84364 1.22945 36010 ft 516 kts 318°
2026-04-28 17:24 31.89615 1.17203 35996 ft 515 kts 311°
2026-04-28 17:24 31.94262 1.10784 36013 ft 516 kts 310°
2026-04-28 17:25 32.01322 1.01294 36008 ft 516 kts 310°
2026-04-28 17:26 32.05986 0.94891 36008 ft 516 kts 310°
2026-04-28 17:26 32.10701 0.88516 36011 ft 515 kts 310°
2026-04-28 17:27 32.15386 0.82103 36007 ft 515 kts 310°
2026-04-28 17:27 32.20041 0.75760 36008 ft 515 kts 310°
2026-04-28 17:28 32.24731 0.69337 36009 ft 515 kts 310°
2026-04-28 17:28 32.31719 0.59760 36009 ft 515 kts 310°
2026-04-28 17:29 32.36417 0.53300 36009 ft 515 kts 310°
2026-04-28 17:30 32.43394 0.43695 36010 ft 515 kts 310°
2026-04-28 17:30 32.50381 0.34049 36010 ft 515 kts 310°
2026-04-28 17:31 32.57336 0.24421 36011 ft 515 kts 310°
2026-04-28 17:32 32.64311 0.14741 36010 ft 515 kts 310°
2026-04-28 17:32 32.68972 0.08259 36012 ft 515 kts 310°
2026-04-28 17:33 32.73603 0.01807 36013 ft 515 kts 310°
2026-04-28 17:33 32.77461 -0.03577 36009 ft 515 kts 310°
2026-04-28 17:34 32.82863 -0.11130 36010 ft 515 kts 310°
2026-04-28 17:34 32.87484 -0.17603 36010 ft 515 kts 310°
2026-04-28 17:35 32.92124 -0.24112 36011 ft 515 kts 310°
2026-04-28 17:35 32.96729 -0.30586 36005 ft 515 kts 310°
2026-04-28 17:36 33.01377 -0.37130 36007 ft 515 kts 310°
2026-04-28 17:36 33.05958 -0.43593 36007 ft 514 kts 310°
2026-04-28 17:37 33.10577 -0.50119 36009 ft 514 kts 310°
2026-04-28 17:37 33.15160 -0.56608 36005 ft 514 kts 310°
2026-04-28 17:38 33.19793 -0.63179 36008 ft 514 kts 310°
2026-04-28 17:38 33.24358 -0.69665 36007 ft 514 kts 309°
2026-04-28 17:39 33.28958 -0.76211 36009 ft 515 kts 309°
2026-04-28 17:40 33.35844 -0.86034 36012 ft 516 kts 309°
2026-04-28 17:40 33.40479 -0.92662 36011 ft 516 kts 309°
2026-04-28 17:41 33.45046 -0.99203 36009 ft 516 kts 309°
2026-04-28 17:41 33.49653 -1.05813 36011 ft 516 kts 309°
2026-04-28 17:42 33.54249 -1.12421 36010 ft 516 kts 309°
2026-04-28 17:42 33.58839 -1.19031 36011 ft 516 kts 309°
2026-04-28 17:43 33.63395 -1.25604 36009 ft 516 kts 309°
2026-04-28 17:43 33.67980 -1.32231 36013 ft 516 kts 309°
2026-04-28 17:44 33.72558 -1.38861 36011 ft 515 kts 309°
2026-04-28 17:44 33.77124 -1.45486 36010 ft 515 kts 309°
2026-04-28 17:45 33.81660 -1.52078 36009 ft 515 kts 309°
2026-04-28 17:45 33.86229 -1.58731 36009 ft 515 kts 309°
2026-04-28 17:46 33.90640 -1.65472 36009 ft 514 kts 305°
2026-04-28 17:46 33.94846 -1.72476 36009 ft 515 kts 306°
2026-04-28 17:47 33.99038 -1.79396 36009 ft 515 kts 306°
2026-04-28 17:47 34.03245 -1.86411 36007 ft 515 kts 306°
2026-04-28 17:48 34.07450 -1.93398 36005 ft 515 kts 306°
2026-04-28 17:48 34.11639 -2.00396 36007 ft 515 kts 306°
2026-04-28 17:49 34.15796 -2.07339 36006 ft 514 kts 306°
2026-04-28 17:49 34.19948 -2.14295 36009 ft 514 kts 305°
2026-04-28 17:50 34.24151 -2.21347 36006 ft 514 kts 305°
2026-04-28 17:50 34.28307 -2.28335 36009 ft 514 kts 305°
2026-04-28 17:51 34.32462 -2.35335 36007 ft 514 kts 305°
2026-04-28 17:51 34.36630 -2.42370 36010 ft 514 kts 305°
2026-04-28 17:52 34.40784 -2.49394 36008 ft 514 kts 305°
2026-04-28 17:52 34.47008 -2.59946 36008 ft 514 kts 305°
2026-04-28 17:53 34.51153 -2.66992 36008 ft 514 kts 305°
2026-04-28 17:53 34.55458 -2.73847 35981 ft 515 kts 314°
2026-04-28 17:54 34.58212 -2.76680 35981 ft 516 kts 325°
2026-04-28 17:54 34.61288 -2.78867 36005 ft 516 kts 332°
2026-04-28 17:54 34.67737 -2.82704 36008 ft 518 kts 332°
2026-04-28 17:55 34.74049 -2.86984 36005 ft 519 kts 331°
2026-04-28 17:55 34.80396 -2.90993 36010 ft 517 kts 332°
2026-04-28 17:56 34.86740 -2.95163 36011 ft 516 kts 331°
2026-04-28 17:56 34.92945 -2.99236 36005 ft 515 kts 328°
2026-04-28 17:57 34.95882 -3.01888 35996 ft 515 kts 317°
2026-04-28 17:57 34.98271 -3.05042 35999 ft 515 kts 307°
2026-04-28 17:57 35.00165 -3.08719 35998 ft 514 kts 296°
2026-04-28 17:57 35.01485 -3.12779 36007 ft 514 kts 287°
2026-04-28 17:58 35.03302 -3.21228 36015 ft 516 kts 283°
2026-04-28 17:58 35.05347 -3.29606 36011 ft 516 kts 289°
2026-04-28 17:59 35.07522 -3.37943 36011 ft 515 kts 285°
2026-04-28 17:59 35.09509 -3.46277 36008 ft 515 kts 287°
2026-04-28 18:00 35.11652 -3.54610 36010 ft 514 kts 286°
2026-04-28 18:00 35.13659 -3.62942 36009 ft 514 kts 287°
2026-04-28 18:01 35.15771 -3.71352 36008 ft 514 kts 286°
2026-04-28 18:01 35.17808 -3.79736 36006 ft 514 kts 286°
2026-04-28 18:02 35.20008 -3.87965 36007 ft 514 kts 289°
2026-04-28 18:02 35.22339 -3.96256 36010 ft 515 kts 288°
2026-04-28 18:03 35.24680 -4.04534 36009 ft 515 kts 289°
2026-04-28 18:03 35.27017 -4.12828 36009 ft 515 kts 288°
2026-04-28 18:04 35.29317 -4.21043 36009 ft 515 kts 289°
2026-04-28 18:04 35.31637 -4.29319 36012 ft 515 kts 288°
2026-04-28 18:05 35.33565 -4.36243 36010 ft 514 kts 288°
2026-04-28 18:05 35.36247 -4.45873 36010 ft 514 kts 288°
2026-04-28 18:06 35.38540 -4.54151 36006 ft 514 kts 288°
2026-04-28 18:06 35.40836 -4.62454 36012 ft 514 kts 288°
2026-04-28 18:07 35.43078 -4.70591 36007 ft 514 kts 288°
2026-04-28 18:07 35.45345 -4.78840 36009 ft 514 kts 288°
2026-04-28 18:08 35.47631 -4.87186 36009 ft 514 kts 288°
2026-04-28 18:08 35.49885 -4.95442 36008 ft 513 kts 288°
2026-04-28 18:09 35.52148 -5.03753 36008 ft 513 kts 288°
2026-04-28 18:09 35.54403 -5.12063 36010 ft 513 kts 288°
2026-04-28 18:10 35.56642 -5.20338 36012 ft 513 kts 288°
2026-04-28 18:10 35.58880 -5.28637 36011 ft 513 kts 288°
2026-04-28 18:11 35.60878 -5.37049 36010 ft 514 kts 284°
2026-04-28 18:11 35.62727 -5.45542 36008 ft 515 kts 285°
2026-04-28 18:12 35.64677 -5.54012 36007 ft 515 kts 286°
2026-04-28 18:12 35.66595 -5.62518 36008 ft 516 kts 285°
2026-04-28 18:13 35.68592 -5.70957 36011 ft 517 kts 286°
2026-04-28 18:13 35.70534 -5.79426 36007 ft 515 kts 285°
2026-04-28 18:14 35.72494 -5.87896 36002 ft 513 kts 285°
2026-04-28 18:14 35.74275 -5.96411 36006 ft 514 kts 282°
2026-04-28 18:15 35.75910 -6.04937 36006 ft 517 kts 283°
2026-04-28 18:15 35.77553 -6.13537 36004 ft 515 kts 283°
2026-04-28 18:16 35.79176 -6.22125 36003 ft 514 kts 283°
2026-04-28 18:16 35.80802 -6.30700 36003 ft 513 kts 282°
2026-04-28 18:17 35.82054 -6.37849 36002 ft 514 kts 281°
2026-04-28 18:17 35.83913 -6.47825 36006 ft 516 kts 285°
2026-04-28 18:18 35.85727 -6.56380 36008 ft 516 kts 284°
2026-04-28 18:18 35.86895 -6.62046 36008 ft 515 kts 284°
2026-04-28 18:19 35.89304 -6.73423 36003 ft 514 kts 284°
2026-04-28 18:19 35.91065 -6.81929 35999 ft 514 kts 284°
2026-04-28 18:20 35.92560 -6.89049 35825 ft 513 kts 281°
2026-04-28 18:20 35.94597 -6.98953 35871 ft 511 kts 281°
2026-04-28 18:21 35.96064 -7.06026 35864 ft 512 kts 281°
2026-04-28 18:21 35.98095 -7.15918 35865 ft 511 kts 281°
2026-04-28 18:22 35.99556 -7.23056 35873 ft 511 kts 281°
2026-04-28 18:22 36.01284 -7.31518 35871 ft 512 kts 281°
2026-04-28 18:23 36.03011 -7.40031 35872 ft 511 kts 281°
2026-04-28 18:23 36.04630 -7.48561 35865 ft 512 kts 280°
2026-04-28 18:24 36.05998 -7.55700 35855 ft 511 kts 281°
2026-04-28 18:24 36.07112 -7.61437 36032 ft 511 kts 281°
2026-04-28 18:24 36.07905 -7.65644 35896 ft 510 kts 281°
2026-04-28 18:25 36.09513 -7.74134 35855 ft 505 kts 281°
2026-04-28 18:26 36.11915 -7.86836 35867 ft 506 kts 281°
2026-04-28 18:26 36.13767 -7.96675 35864 ft 505 kts 281°
2026-04-28 18:27 36.15088 -8.03735 35864 ft 504 kts 281°
2026-04-28 18:27 36.16663 -8.12183 35859 ft 504 kts 281°
2026-04-28 18:28 36.18235 -8.20645 35869 ft 503 kts 281°
2026-04-28 18:28 36.19796 -8.29088 35866 ft 503 kts 281°
2026-04-28 18:29 36.21347 -8.37507 35877 ft 502 kts 281°
2026-04-28 18:29 36.22880 -8.45869 35879 ft 501 kts 281°
2026-04-28 18:30 36.24415 -8.54275 35883 ft 500 kts 281°
2026-04-28 18:30 36.25933 -8.62620 35888 ft 499 kts 281°
2026-04-28 18:31 36.27451 -8.71003 35885 ft 499 kts 281°
2026-04-28 18:31 36.28962 -8.79382 35889 ft 498 kts 281°
2026-04-28 18:32 36.30468 -8.87772 35888 ft 498 kts 281°
2026-04-28 18:32 36.31958 -8.96106 35892 ft 497 kts 281°
2026-04-28 18:33 36.33445 -9.04455 35892 ft 496 kts 281°
2026-04-28 18:33 36.34928 -9.12825 35896 ft 496 kts 281°
2026-04-28 18:34 36.36401 -9.21169 35900 ft 495 kts 282°
2026-04-28 18:34 36.37864 -9.29494 35900 ft 495 kts 282°
2026-04-28 18:35 36.39316 -9.37796 35899 ft 494 kts 282°
2026-04-28 18:35 36.40768 -9.46127 35899 ft 494 kts 282°
2026-04-28 18:36 36.42212 -9.54449 35903 ft 494 kts 282°
2026-04-28 18:36 36.43651 -9.62786 35901 ft 493 kts 282°
2026-04-28 18:37 36.45080 -9.71095 35908 ft 491 kts 282°
2026-04-28 18:37 36.46443 -9.79055 35907 ft 490 kts 282°
2026-04-28 18:38 36.47854 -9.87332 35911 ft 489 kts 282°
2026-04-28 18:38 36.49252 -9.95569 35909 ft 488 kts 282°
2026-04-28 18:39 36.51184 -10.03633 35913 ft 486 kts 292°
2026-04-28 18:39 36.53722 -10.11370 35914 ft 486 kts 291°
2026-04-28 18:40 36.56250 -10.19174 35915 ft 486 kts 292°
2026-04-28 18:40 36.58786 -10.26951 35916 ft 485 kts 292°
2026-04-28 18:41 36.61180 -10.34369 35919 ft 484 kts 292°
2026-04-28 18:41 36.63678 -10.42084 35919 ft 484 kts 292°
2026-04-28 18:42 36.66162 -10.49805 35925 ft 484 kts 292°
2026-04-28 18:42 36.68660 -10.57574 35922 ft 483 kts 292°
2026-04-28 18:43 36.71151 -10.65351 35925 ft 482 kts 292°
2026-04-28 18:43 36.73621 -10.73078 35929 ft 482 kts 292°
2026-04-28 18:44 36.76096 -10.80841 35929 ft 481 kts 292°
2026-04-28 18:44 36.79784 -10.92452 35928 ft 479 kts 292°
2026-04-28 18:45 36.82233 -11.00188 35931 ft 478 kts 292°
2026-04-28 18:45 36.84654 -11.07854 35935 ft 477 kts 292°
2026-04-28 18:46 36.87079 -11.15554 35931 ft 476 kts 292°
2026-04-28 18:46 36.89495 -11.23245 35930 ft 476 kts 292°
2026-04-28 18:47 36.91906 -11.30943 35932 ft 474 kts 292°
2026-04-28 18:47 36.94307 -11.38629 35925 ft 482 kts 291°
2026-04-28 18:48 36.96758 -11.46497 35941 ft 489 kts 291°
2026-04-28 18:48 36.99220 -11.54417 35944 ft 488 kts 291°
2026-04-28 18:49 37.01257 -11.60994 35937 ft 488 kts 291°
2026-04-28 18:49 37.04122 -11.70262 35941 ft 487 kts 291°
2026-04-28 18:50 37.05937 -11.76153 35945 ft 487 kts 291°
2026-04-28 18:50 37.08367 -11.84055 35943 ft 487 kts 291°
2026-04-28 18:51 37.10794 -11.91971 35945 ft 487 kts 291°
2026-04-28 18:51 37.13208 -11.99867 35942 ft 486 kts 291°
2026-04-28 18:52 37.15618 -12.07774 35939 ft 486 kts 291°
2026-04-28 18:52 37.18026 -12.15695 35944 ft 486 kts 291°
2026-04-28 18:53 37.20422 -12.23599 35948 ft 485 kts 291°
2026-04-28 18:53 37.22798 -12.31458 35948 ft 484 kts 291°
2026-04-28 18:54 37.25183 -12.39368 35949 ft 485 kts 291°
2026-04-28 18:54 37.27559 -12.47271 35951 ft 484 kts 291°
2026-04-28 18:55 37.29925 -12.55168 35953 ft 484 kts 291°
2026-04-28 18:55 37.32279 -12.63041 35959 ft 483 kts 291°
2026-04-28 18:56 37.34634 -12.70944 35958 ft 482 kts 291°
2026-04-28 18:56 37.36986 -12.78859 35955 ft 482 kts 291°
2026-04-28 18:57 37.39307 -12.86690 35955 ft 481 kts 291°
2026-04-28 18:57 37.41643 -12.94594 35961 ft 482 kts 290°
2026-04-28 18:58 37.43969 -13.02489 35967 ft 481 kts 290°
2026-04-28 18:58 37.46288 -13.10382 35965 ft 482 kts 290°
2026-04-28 18:59 37.48614 -13.18324 35958 ft 483 kts 290°
2026-04-28 18:59 37.50906 -13.26170 35969 ft 482 kts 290°
2026-04-28 19:00 37.53217 -13.34106 35970 ft 481 kts 290°
2026-04-28 19:00 37.55512 -13.42006 35979 ft 481 kts 290°
2026-04-28 19:01 37.57806 -13.49928 35969 ft 480 kts 290°
2026-04-28 19:01 37.60083 -13.57814 35969 ft 480 kts 290°
2026-04-28 19:02 37.62357 -13.65717 35975 ft 480 kts 290°
2026-04-28 19:02 37.64634 -13.73647 35971 ft 480 kts 290°
2026-04-28 19:03 37.66897 -13.81557 35976 ft 479 kts 290°
2026-04-28 19:03 37.69153 -13.89462 35973 ft 479 kts 290°
2026-04-28 19:04 37.71393 -13.97334 35948 ft 479 kts 290°
2026-04-28 19:04 37.73641 -14.05261 35976 ft 483 kts 290°
2026-04-28 19:05 37.75900 -14.13247 35983 ft 483 kts 290°
2026-04-28 19:05 37.78163 -14.21274 35987 ft 484 kts 290°
2026-04-28 19:06 37.80032 -14.27918 35986 ft 483 kts 290°
2026-04-28 19:06 37.82644 -14.37235 35988 ft 483 kts 290°
2026-04-28 19:07 37.84884 -14.45251 35988 ft 482 kts 290°
2026-04-28 19:07 37.87111 -14.53247 35995 ft 483 kts 290°
2026-04-28 19:08 37.89338 -14.61264 35997 ft 483 kts 289°
2026-04-28 19:08 37.91543 -14.69227 35998 ft 482 kts 289°
2026-04-28 19:09 37.93758 -14.77252 35997 ft 483 kts 289°
2026-04-28 19:09 37.95971 -14.85290 36001 ft 482 kts 289°
2026-04-28 19:10 37.98172 -14.93313 36070 ft 480 kts 290°
2026-04-28 19:10 37.99221 -14.97159 35992 ft 459 kts 290°
2026-04-28 19:10 38.00227 -15.00962 35986 ft 455 kts 288°
2026-04-28 19:11 38.01948 -15.08735 35994 ft 459 kts 288°
2026-04-28 19:11 38.03693 -15.16504 35993 ft 459 kts 288°
2026-04-28 19:12 38.05420 -15.24307 35996 ft 459 kts 288°
2026-04-28 19:12 38.07145 -15.32082 35992 ft 458 kts 288°
2026-04-28 19:13 38.08852 -15.39823 35996 ft 459 kts 288°
2026-04-28 19:13 38.10576 -15.47660 35999 ft 460 kts 288°
2026-04-28 19:14 38.12280 -15.55436 35999 ft 461 kts 288°
2026-04-28 19:14 38.13991 -15.63268 35995 ft 460 kts 288°
2026-04-28 19:15 38.15699 -15.71116 36003 ft 461 kts 287°
2026-04-28 19:15 38.17110 -15.77618 36003 ft 461 kts 287°
2026-04-28 19:16 38.19087 -15.86764 36002 ft 461 kts 287°
2026-04-28 19:16 38.20780 -15.94628 36004 ft 461 kts 287°
2026-04-28 19:17 38.22462 -16.02467 36006 ft 461 kts 287°
2026-04-28 19:17 38.24150 -16.10360 36003 ft 462 kts 287°
2026-04-28 19:18 38.25827 -16.18231 36014 ft 462 kts 287°
2026-04-28 19:18 38.27504 -16.26132 36014 ft 462 kts 287°
2026-04-28 19:19 38.29163 -16.33977 36014 ft 462 kts 287°
2026-04-28 19:19 38.30828 -16.41876 36013 ft 462 kts 287°
2026-04-28 19:20 38.32481 -16.49751 36013 ft 462 kts 287°
2026-04-28 19:20 38.34107 -16.57523 36034 ft 462 kts 287°
2026-04-28 19:21 38.35757 -16.65437 36037 ft 462 kts 287°
2026-04-28 19:21 38.37387 -16.73286 36038 ft 462 kts 287°
2026-04-28 19:22 38.38753 -16.79884 36036 ft 462 kts 287°
2026-04-28 19:22 38.40663 -16.89146 36035 ft 463 kts 287°
2026-04-28 19:23 38.42284 -16.97038 36039 ft 463 kts 286°
2026-04-28 19:23 38.43908 -17.04977 36041 ft 463 kts 286°
2026-04-28 19:24 38.45530 -17.12930 36043 ft 463 kts 286°
2026-04-28 19:24 38.47142 -17.20869 36040 ft 463 kts 286°
2026-04-28 19:25 38.48730 -17.28716 36043 ft 463 kts 286°
2026-04-28 19:25 38.50334 -17.36673 36042 ft 463 kts 286°
2026-04-28 19:26 38.51938 -17.44661 36044 ft 463 kts 286°
2026-04-28 19:26 38.53531 -17.52624 36041 ft 463 kts 286°
2026-04-28 19:27 38.55110 -17.60549 36043 ft 464 kts 285°
2026-04-28 19:27 38.56695 -17.68533 36045 ft 463 kts 285°
2026-04-28 19:28 38.58272 -17.76504 36044 ft 464 kts 285°
2026-04-28 19:28 38.59848 -17.84510 36046 ft 464 kts 285°
2026-04-28 19:29 38.61155 -17.91168 36047 ft 464 kts 285°
2026-04-28 19:29 38.62976 -18.00479 36052 ft 465 kts 285°
2026-04-28 19:30 38.64537 -18.08499 36051 ft 465 kts 285°
2026-04-28 19:30 38.66093 -18.16523 36054 ft 465 kts 285°
2026-04-28 19:31 38.67638 -18.24520 36056 ft 465 kts 285°
2026-04-28 19:31 38.69181 -18.32541 36057 ft 465 kts 285°
2026-04-28 19:32 38.70725 -18.40600 36054 ft 465 kts 285°
2026-04-28 19:32 38.72257 -18.48626 36060 ft 466 kts 284°
2026-04-28 19:33 38.73731 -18.56382 36063 ft 466 kts 284°
2026-04-28 19:33 38.75260 -18.64454 36064 ft 467 kts 284°
2026-04-28 19:34 38.76784 -18.72540 36068 ft 467 kts 284°
2026-04-28 19:34 38.78302 -18.80622 36064 ft 467 kts 284°
2026-04-28 19:35 38.79818 -18.88726 36067 ft 467 kts 284°
2026-04-28 19:35 38.81317 -18.96774 36067 ft 468 kts 284°
2026-04-28 19:36 38.82816 -19.04854 36068 ft 467 kts 284°
2026-04-28 19:36 38.84319 -19.12989 36067 ft 467 kts 284°
2026-04-28 19:37 38.85558 -19.19720 36071 ft 468 kts 283°
2026-04-28 19:37 38.87294 -19.29194 36066 ft 468 kts 283°
2026-04-28 19:38 38.88779 -19.37334 36074 ft 468 kts 283°
2026-04-28 19:38 38.90254 -19.45453 36080 ft 469 kts 283°
2026-04-28 19:39 38.91723 -19.53575 36080 ft 469 kts 283°
2026-04-28 19:39 38.93200 -19.61777 36079 ft 469 kts 283°
2026-04-28 19:40 38.94654 -19.69885 36093 ft 470 kts 283°
2026-04-28 19:40 38.96122 -19.78102 36083 ft 471 kts 283°
2026-04-28 19:41 38.97574 -19.86269 36086 ft 471 kts 283°
2026-04-28 19:41 38.99022 -19.94450 36088 ft 472 kts 283°
2026-04-28 19:42 39.00642 -20.02584 36082 ft 471 kts 288°
2026-04-28 19:42 39.02312 -20.09200 36092 ft 472 kts 287°
2026-04-28 19:43 39.04617 -20.18586 36087 ft 472 kts 287°
2026-04-28 19:43 39.06621 -20.26625 36084 ft 473 kts 287°
2026-04-28 19:44 39.08612 -20.34746 36085 ft 473 kts 287°
2026-04-28 19:44 39.10593 -20.42774 36082 ft 474 kts 287°
2026-04-28 19:45 39.12571 -20.50872 36084 ft 474 kts 287°
2026-04-28 19:45 39.14541 -20.58930 36081 ft 474 kts 287°
2026-04-28 19:46 39.16502 -20.66998 36082 ft 474 kts 287°
2026-04-28 19:46 39.18473 -20.75121 36083 ft 475 kts 287°
2026-04-28 19:47 39.20428 -20.83216 36081 ft 475 kts 287°
2026-04-28 19:47 39.22401 -20.91409 36082 ft 476 kts 287°
2026-04-28 19:48 39.24343 -20.99499 36081 ft 476 kts 287°
2026-04-28 19:48 39.26294 -21.07662 36081 ft 477 kts 287°
2026-04-28 19:49 39.28243 -21.15837 36085 ft 477 kts 286°
2026-04-28 19:49 39.30189 -21.24032 36082 ft 477 kts 286°
2026-04-28 19:50 39.33080 -21.36260 36083 ft 477 kts 286°
2026-04-28 19:51 39.35007 -21.44445 36084 ft 477 kts 286°
2026-04-28 19:51 39.36931 -21.52648 36082 ft 477 kts 286°
2026-04-28 19:52 39.38853 -21.60874 36082 ft 477 kts 286°
2026-04-28 19:52 39.40754 -21.69034 36081 ft 478 kts 285°
2026-04-28 19:53 39.42667 -21.77278 36084 ft 478 kts 285°
2026-04-28 19:53 39.44567 -21.85496 36085 ft 479 kts 285°
2026-04-28 19:54 39.46468 -21.93744 36085 ft 479 kts 285°
2026-04-28 19:54 39.48357 -22.01972 36088 ft 480 kts 285°
2026-04-28 19:55 39.50252 -22.10258 36088 ft 480 kts 285°
2026-04-28 19:55 39.52141 -22.18545 36089 ft 480 kts 285°
2026-04-28 19:56 39.54010 -22.26774 36091 ft 480 kts 285°
2026-04-28 19:56 39.55891 -22.35086 36091 ft 480 kts 285°
2026-04-28 19:57 39.57758 -22.43371 36091 ft 480 kts 285°
2026-04-28 19:57 39.59633 -22.51719 36089 ft 481 kts 284°
2026-04-28 19:58 39.61490 -22.60020 36092 ft 481 kts 284°
2026-04-28 19:58 39.63349 -22.68359 36087 ft 481 kts 284°
2026-04-28 19:59 39.65189 -22.76644 36082 ft 480 kts 284°
2026-04-28 19:59 39.67031 -22.84966 36079 ft 480 kts 284°
2026-04-28 20:00 39.68865 -22.93290 36081 ft 480 kts 284°
2026-04-28 20:00 39.70700 -23.01647 36080 ft 481 kts 284°
2026-04-28 20:01 39.72518 -23.09954 36075 ft 480 kts 284°
2026-04-28 20:01 39.74335 -23.18293 36077 ft 480 kts 284°
2026-04-28 20:02 39.76153 -23.26666 36069 ft 480 kts 284°
2026-04-28 20:02 39.77955 -23.35000 36072 ft 481 kts 283°
2026-04-28 20:03 39.79761 -23.43381 36065 ft 481 kts 283°
2026-04-28 20:03 39.81542 -23.51682 36067 ft 481 kts 283°
2026-04-28 20:04 39.83335 -23.60065 36054 ft 480 kts 283°
2026-04-28 20:04 39.85117 -23.68437 36050 ft 480 kts 283°
2026-04-28 20:05 39.86898 -23.76832 36063 ft 481 kts 283°
2026-04-28 20:05 39.88662 -23.85179 36060 ft 482 kts 283°
2026-04-28 20:06 39.90435 -23.93602 36055 ft 482 kts 283°
2026-04-28 20:06 39.92203 -24.02036 36056 ft 483 kts 282°
2026-04-28 20:07 39.93959 -24.10448 36055 ft 483 kts 282°
2026-04-28 20:07 39.95719 -24.18909 36046 ft 482 kts 282°
2026-04-28 20:08 39.97460 -24.27313 36044 ft 483 kts 282°
2026-04-28 20:08 39.99198 -24.35736 36038 ft 482 kts 282°
2026-04-28 20:09 40.00938 -24.44207 36037 ft 482 kts 282°
2026-04-28 20:09 40.02665 -24.52645 36020 ft 482 kts 282°
2026-04-28 20:10 40.04377 -24.61041 36029 ft 482 kts 282°
2026-04-28 20:10 40.06086 -24.69462 36017 ft 481 kts 281°
2026-04-28 20:11 40.07801 -24.77942 36024 ft 481 kts 281°
2026-04-28 20:11 40.09486 -24.86312 36018 ft 481 kts 281°
2026-04-28 20:12 40.11179 -24.94756 36020 ft 481 kts 281°
2026-04-28 20:12 40.12871 -25.03230 36022 ft 480 kts 281°
2026-04-28 20:13 40.14553 -25.11688 36013 ft 481 kts 281°
2026-04-28 20:13 40.16219 -25.20101 36009 ft 482 kts 280°
2026-04-28 20:14 40.17896 -25.28602 36005 ft 482 kts 280°
2026-04-28 20:14 40.19563 -25.37091 36007 ft 484 kts 280°
2026-04-28 20:15 40.21236 -25.45647 35992 ft 485 kts 280°
2026-04-28 20:15 40.22898 -25.54178 35996 ft 486 kts 280°
2026-04-28 20:16 40.24564 -25.62770 35996 ft 487 kts 280°
2026-04-28 20:16 40.26218 -25.71338 35991 ft 488 kts 280°
2026-04-28 20:17 40.27872 -25.79942 35990 ft 489 kts 280°
2026-04-28 20:17 40.29528 -25.88596 35979 ft 490 kts 280°
2026-04-28 20:18 40.31174 -25.97230 35977 ft 491 kts 280°
2026-04-28 20:18 40.32819 -26.05904 35967 ft 492 kts 279°
2026-04-28 20:19 40.34470 -26.14643 35974 ft 493 kts 280°
2026-04-28 20:19 40.36110 -26.23366 35966 ft 495 kts 280°
2026-04-28 20:20 40.37757 -26.32165 35964 ft 496 kts 280°
2026-04-28 20:20 40.39393 -26.40943 35959 ft 497 kts 279°
2026-04-28 20:21 40.41019 -26.49712 35940 ft 498 kts 279°
2026-04-28 20:21 40.42651 -26.58547 35937 ft 499 kts 279°
2026-04-28 20:22 40.44270 -26.67358 35943 ft 500 kts 279°
2026-04-28 20:22 40.45894 -26.76230 35942 ft 500 kts 279°
2026-04-28 20:23 40.47509 -26.85102 35934 ft 501 kts 279°
2026-04-28 20:23 40.49121 -26.93995 35933 ft 501 kts 279°
2026-04-28 20:24 40.50720 -27.02860 35933 ft 501 kts 279°
2026-04-28 20:24 40.52329 -27.11823 35929 ft 501 kts 279°
2026-04-28 20:25 40.53907 -27.20654 35926 ft 501 kts 279°
2026-04-28 20:25 40.55500 -27.29607 35927 ft 501 kts 278°
2026-04-28 20:26 40.57077 -27.38519 35920 ft 500 kts 278°
2026-04-28 20:26 40.58646 -27.47427 35924 ft 500 kts 278°
2026-04-28 20:27 40.60197 -27.56276 35918 ft 501 kts 278°
2026-04-28 20:27 40.61758 -27.65227 35914 ft 501 kts 278°
2026-04-28 20:28 40.63308 -27.74153 35918 ft 501 kts 278°
2026-04-28 20:28 40.64852 -27.83094 35918 ft 501 kts 278°
2026-04-28 20:29 40.66383 -27.92004 35919 ft 502 kts 277°
2026-04-28 20:29 40.67913 -28.00948 35920 ft 502 kts 277°
2026-04-28 20:30 40.69446 -28.09955 35920 ft 502 kts 277°
2026-04-28 20:30 40.70966 -28.18931 35915 ft 503 kts 277°
2026-04-28 20:31 40.72473 -28.27874 35922 ft 503 kts 277°
2026-04-28 20:31 40.73982 -28.36880 35901 ft 504 kts 277°
2026-04-28 20:32 40.75493 -28.45939 35919 ft 505 kts 276°
2026-04-28 20:32 40.76994 -28.54986 35909 ft 506 kts 276°
2026-04-28 20:33 40.78481 -28.63995 35906 ft 507 kts 276°
2026-04-28 20:33 40.79973 -28.73080 35906 ft 508 kts 276°
2026-04-28 20:34 40.81463 -28.82203 35909 ft 508 kts 276°
2026-04-28 20:34 40.82937 -28.91277 35909 ft 509 kts 276°
2026-04-28 20:35 40.84410 -29.00393 35905 ft 510 kts 276°
2026-04-28 20:35 40.85892 -29.09607 35901 ft 511 kts 275°
2026-04-28 20:36 40.87356 -29.18764 35902 ft 512 kts 275°
2026-04-28 20:36 40.88818 -29.27955 35903 ft 513 kts 275°
2026-04-28 20:37 40.90228 -29.36865 35916 ft 514 kts 275°
2026-04-28 20:37 40.90954 -29.41478 36183 ft 514 kts 275°
2026-04-28 20:37 40.91684 -29.46124 36483 ft 514 kts 275°
2026-04-28 20:37 40.92409 -29.50745 36757 ft 514 kts 275°
2026-04-28 20:38 40.93132 -29.55376 36988 ft 514 kts 275°
2026-04-28 20:38 40.93852 -29.60000 37241 ft 515 kts 275°
2026-04-28 20:38 40.94577 -29.64669 37483 ft 515 kts 276°
2026-04-28 20:38 40.95286 -29.69240 37715 ft 516 kts 276°
2026-04-28 20:39 40.96003 -29.73882 37873 ft 518 kts 276°
2026-04-28 20:39 40.97449 -29.83276 37875 ft 519 kts 276°
2026-04-28 20:40 40.98878 -29.92612 37876 ft 518 kts 276°
2026-04-28 20:40 41.00460 -30.01941 37856 ft 525 kts 283°
2026-04-28 20:41 41.02782 -30.11038 37892 ft 525 kts 283°
2026-04-28 20:41 41.05037 -30.20218 37883 ft 525 kts 283°
2026-04-28 20:42 41.07342 -30.29430 37886 ft 526 kts 283°
2026-04-28 20:42 41.09591 -30.38574 37882 ft 525 kts 283°
2026-04-28 20:43 41.11858 -30.47763 37883 ft 524 kts 283°
2026-04-28 20:43 41.14110 -30.56954 37882 ft 524 kts 283°
2026-04-28 20:44 41.16359 -30.66158 37881 ft 523 kts 283°
2026-04-28 20:44 41.18593 -30.75341 37876 ft 522 kts 283°
2026-04-28 20:45 41.20801 -30.84454 37878 ft 521 kts 284°
2026-04-28 20:45 41.23013 -30.93619 37881 ft 521 kts 284°
2026-04-28 20:46 41.25213 -31.02769 37878 ft 521 kts 284°
2026-04-28 20:46 41.27415 -31.11966 37877 ft 521 kts 284°
2026-04-28 20:47 41.29589 -31.21081 37879 ft 521 kts 284°
2026-04-28 20:47 41.31773 -31.30273 37871 ft 521 kts 284°
2026-04-28 20:48 41.33951 -31.39481 37880 ft 522 kts 284°
2026-04-28 20:48 41.36119 -31.48678 37875 ft 522 kts 284°
2026-04-28 20:49 41.37927 -31.56379 37878 ft 522 kts 284°
2026-04-28 20:49 41.40356 -31.66767 37873 ft 522 kts 284°
2026-04-28 20:50 41.42513 -31.76032 37871 ft 523 kts 285°
2026-04-28 20:50 41.44654 -31.85265 37871 ft 522 kts 285°
2026-04-28 20:51 41.46783 -31.94487 37871 ft 522 kts 285°
2026-04-28 20:51 41.48909 -32.03729 37874 ft 521 kts 285°
2026-04-28 20:52 41.51024 -32.12966 37875 ft 520 kts 285°
2026-04-28 20:52 41.53125 -32.22177 37853 ft 520 kts 285°
2026-04-28 20:53 41.56258 -32.35988 37861 ft 520 kts 285°
2026-04-28 20:53 41.58346 -32.45237 37867 ft 519 kts 285°
2026-04-28 20:54 41.60423 -32.54476 37871 ft 520 kts 285°
2026-04-28 20:54 41.62495 -32.63733 37866 ft 520 kts 285°
2026-04-28 20:55 41.64559 -32.72997 37864 ft 520 kts 285°
2026-04-28 20:55 41.66604 -32.82211 37864 ft 521 kts 285°
2026-04-28 20:56 41.68661 -32.91520 37867 ft 522 kts 285°
2026-04-28 20:56 41.70703 -33.00800 37878 ft 522 kts 285°
2026-04-28 20:57 41.72751 -33.10149 37872 ft 522 kts 285°
2026-04-28 20:57 41.74776 -33.19431 37869 ft 522 kts 285°
2026-04-28 20:58 41.76799 -33.28742 37868 ft 521 kts 285°
2026-04-28 20:58 41.78812 -33.38055 37870 ft 520 kts 285°
2026-04-28 20:59 41.80816 -33.47360 37871 ft 519 kts 285°
2026-04-28 20:59 41.82795 -33.56595 37863 ft 519 kts 286°
2026-04-28 21:00 41.84782 -33.65899 37870 ft 519 kts 286°
2026-04-28 21:00 41.86755 -33.75185 37864 ft 518 kts 286°
2026-04-28 21:01 41.88724 -33.84491 37874 ft 518 kts 286°
2026-04-28 21:01 41.90670 -33.93731 37873 ft 517 kts 286°
2026-04-28 21:02 41.92617 -34.03015 37870 ft 517 kts 286°
2026-04-28 21:02 41.94559 -34.12320 37875 ft 517 kts 286°
2026-04-28 21:03 41.96484 -34.21579 37874 ft 517 kts 286°
2026-04-28 21:03 41.98406 -34.30874 37877 ft 516 kts 286°
2026-04-28 21:04 42.00318 -34.40153 37871 ft 516 kts 286°
2026-04-28 21:04 42.02221 -34.49437 37874 ft 516 kts 287°
2026-04-28 21:05 42.04112 -34.58697 37884 ft 515 kts 287°
2026-04-28 21:05 42.06003 -34.68005 37886 ft 515 kts 287°
2026-04-28 21:06 42.07874 -34.77258 37888 ft 514 kts 287°
2026-04-28 21:06 42.09745 -34.86548 37895 ft 513 kts 287°
2026-04-28 21:07 42.11287 -34.94242 37897 ft 512 kts 287°
2026-04-28 21:07 42.13439 -35.05023 37902 ft 511 kts 287°
2026-04-28 21:08 42.15273 -35.14262 37896 ft 510 kts 287°
2026-04-28 21:08 42.17090 -35.23448 37904 ft 509 kts 287°
2026-04-28 21:09 42.18876 -35.32532 37902 ft 509 kts 287°
2026-04-28 21:09 42.20679 -35.41729 37907 ft 508 kts 287°
2026-04-28 21:10 42.22462 -35.50880 37918 ft 507 kts 287°
2026-04-28 21:10 42.24243 -35.60050 37918 ft 506 kts 287°
2026-04-28 21:11 42.26014 -35.69225 37922 ft 506 kts 287°
2026-04-28 21:11 42.27787 -35.78447 37928 ft 505 kts 287°
2026-04-28 21:12 42.29531 -35.87563 37924 ft 504 kts 287°
2026-04-28 21:12 42.30989 -35.95216 37932 ft 504 kts 287°
2026-04-28 21:13 42.33014 -36.05896 37940 ft 503 kts 287°
2026-04-28 21:13 42.34446 -36.13488 37958 ft 503 kts 287°
2026-04-28 21:14 42.36167 -36.22649 37959 ft 503 kts 287°
2026-04-28 21:14 42.37879 -36.31802 37959 ft 503 kts 287°
2026-04-28 21:15 42.39867 -36.42489 37962 ft 503 kts 287°
2026-04-28 21:15 42.41558 -36.51629 37965 ft 502 kts 287°
2026-04-28 21:16 42.42966 -36.59273 37961 ft 502 kts 287°
2026-04-28 21:16 42.44647 -36.68441 37967 ft 501 kts 287°
2026-04-28 21:17 42.46311 -36.77556 37969 ft 500 kts 287°
2026-04-28 21:17 42.47975 -36.86721 37970 ft 499 kts 287°
2026-04-28 21:18 42.49612 -36.95777 37975 ft 498 kts 287°
2026-04-28 21:18 42.51254 -37.04910 37974 ft 497 kts 287°
2026-04-28 21:19 42.52883 -37.14009 37979 ft 497 kts 287°
2026-04-28 21:19 42.54495 -37.23064 37987 ft 496 kts 287°
2026-04-28 21:20 42.56105 -37.32144 37983 ft 496 kts 287°
2026-04-28 21:20 42.57706 -37.41227 37984 ft 496 kts 287°
2026-04-28 21:21 42.59305 -37.50344 37994 ft 496 kts 286°
2026-04-28 21:21 42.60894 -37.59448 37989 ft 496 kts 286°
2026-04-28 21:22 42.62475 -37.68550 37992 ft 495 kts 286°
2026-04-28 21:22 42.64040 -37.77608 37999 ft 495 kts 286°
2026-04-28 21:23 42.65602 -37.86693 38005 ft 495 kts 286°
2026-04-28 21:23 42.67155 -37.95776 38003 ft 493 kts 286°
2026-04-28 21:24 42.68693 -38.04810 38010 ft 492 kts 286°
2026-04-28 21:24 42.70228 -38.13877 38018 ft 492 kts 286°
2026-04-28 21:25 42.71749 -38.22910 38016 ft 490 kts 285°
2026-04-28 21:25 42.73263 -38.31944 38021 ft 489 kts 285°
2026-04-28 21:26 42.74769 -38.40978 38025 ft 489 kts 285°
2026-04-28 21:26 42.76255 -38.49942 38033 ft 489 kts 285°
2026-04-28 21:27 42.77742 -38.58953 38034 ft 488 kts 285°
2026-04-28 21:27 42.79222 -38.67972 38046 ft 487 kts 285°
2026-04-28 21:28 42.80691 -38.76968 38040 ft 487 kts 285°
2026-04-28 21:28 42.82143 -38.85912 38052 ft 486 kts 285°
2026-04-28 21:29 42.83598 -38.94916 38056 ft 486 kts 285°
2026-04-28 21:29 42.85040 -39.03893 38054 ft 486 kts 284°
2026-04-28 21:30 42.86477 -39.12883 38063 ft 485 kts 284°
2026-04-28 21:30 42.87907 -39.21879 38065 ft 485 kts 284°
2026-04-28 21:31 42.89320 -39.30817 38075 ft 485 kts 284°
2026-04-28 21:31 42.90733 -39.39801 38071 ft 485 kts 284°
2026-04-28 21:32 42.92138 -39.48791 38077 ft 484 kts 284°
2026-04-28 21:32 42.93530 -39.57739 38075 ft 484 kts 284°
2026-04-28 21:33 42.94917 -39.66705 38090 ft 484 kts 284°
2026-04-28 21:33 42.96298 -39.75681 38088 ft 484 kts 284°
2026-04-28 21:34 42.97679 -39.84708 38089 ft 484 kts 284°
2026-04-28 21:34 42.99046 -39.93693 38096 ft 484 kts 284°
2026-04-28 21:35 43.00397 -40.02633 38095 ft 483 kts 283°
2026-04-28 21:35 43.01687 -40.11644 38095 ft 482 kts 283°
2026-04-28 21:36 43.02987 -40.20603 38103 ft 481 kts 283°
2026-04-28 21:36 43.04265 -40.29524 38101 ft 480 kts 283°
2026-04-28 21:37 43.05540 -40.38465 38122 ft 479 kts 283°
2026-04-28 21:37 43.06803 -40.47364 38117 ft 477 kts 283°
2026-04-28 21:38 43.08056 -40.56259 38117 ft 476 kts 283°
2026-04-28 21:38 43.09308 -40.65187 38128 ft 476 kts 283°
2026-04-28 21:39 43.10537 -40.74017 38121 ft 475 kts 283°
2026-04-28 21:39 43.11746 -40.82743 38134 ft 474 kts 283°
2026-04-28 21:40 43.12958 -40.91547 38140 ft 473 kts 283°
2026-04-28 21:40 43.14170 -41.00407 38136 ft 473 kts 283°
2026-04-28 21:41 43.15364 -41.09185 38139 ft 472 kts 282°
2026-04-28 21:41 43.16557 -41.18009 38142 ft 471 kts 282°
2026-04-28 21:42 43.17740 -41.26813 38150 ft 470 kts 282°
2026-04-28 21:42 43.18918 -41.35635 38159 ft 469 kts 282°
2026-04-28 21:43 43.20087 -41.44440 38157 ft 469 kts 282°
2026-04-28 21:43 43.21244 -41.53211 38153 ft 468 kts 282°
2026-04-28 21:44 43.22389 -41.61940 38158 ft 468 kts 282°
2026-04-28 21:44 43.23530 -41.70703 38155 ft 468 kts 282°
2026-04-28 21:45 43.24667 -41.79482 38170 ft 468 kts 282°
2026-04-28 21:45 43.25794 -41.88239 38165 ft 468 kts 282°
2026-04-28 21:46 43.26917 -41.97018 38165 ft 468 kts 282°
2026-04-28 21:46 43.28033 -42.05808 38174 ft 468 kts 282°
2026-04-28 21:47 43.29145 -42.14613 38178 ft 468 kts 282°
2026-04-28 21:47 43.30247 -42.23398 38182 ft 467 kts 282°
2026-04-28 21:48 43.31343 -42.32196 38179 ft 468 kts 282°
2026-04-28 21:48 43.32427 -42.40947 38181 ft 467 kts 281°
2026-04-28 21:49 43.33509 -42.49748 38183 ft 467 kts 281°
2026-04-28 21:49 43.34577 -42.58485 38188 ft 467 kts 281°
2026-04-28 21:50 43.35644 -42.67275 38186 ft 467 kts 281°
2026-04-28 21:50 43.36706 -42.76081 38201 ft 467 kts 281°
2026-04-28 21:51 43.37764 -42.84918 38199 ft 468 kts 281°
2026-04-28 21:51 43.38805 -42.93669 38195 ft 467 kts 281°
2026-04-28 21:52 43.39853 -43.02534 38196 ft 467 kts 281°
2026-04-28 21:52 43.40880 -43.11292 38196 ft 467 kts 281°
2026-04-28 21:53 43.41909 -43.20115 38197 ft 467 kts 281°
2026-04-28 21:53 43.42931 -43.28948 38205 ft 467 kts 281°
2026-04-28 21:54 43.43942 -43.37752 38201 ft 467 kts 281°
2026-04-28 21:54 43.44942 -43.46509 38205 ft 466 kts 281°
2026-04-28 21:55 43.45944 -43.55349 38205 ft 466 kts 281°
2026-04-28 21:55 43.46935 -43.64162 38211 ft 466 kts 281°
2026-04-28 21:56 43.47910 -43.72886 38217 ft 465 kts 281°
2026-04-28 21:56 43.48888 -43.81707 38214 ft 465 kts 281°
2026-04-28 21:57 43.49858 -43.90516 38212 ft 465 kts 281°
2026-04-28 21:57 43.50822 -43.99340 38217 ft 465 kts 281°
2026-04-28 21:58 43.51776 -44.08127 38231 ft 465 kts 281°
2026-04-28 21:58 43.52718 -44.16880 38230 ft 464 kts 280°
2026-04-28 21:59 43.53660 -44.25688 38228 ft 464 kts 280°
2026-04-28 22:00 43.55050 -44.38815 38235 ft 464 kts 280°
2026-04-28 22:00 43.55973 -44.47611 38239 ft 463 kts 280°
2026-04-28 22:01 43.56886 -44.56382 38239 ft 462 kts 280°
2026-04-28 22:01 43.57794 -44.65167 38242 ft 462 kts 280°
2026-04-28 22:02 43.58693 -44.73937 38239 ft 463 kts 280°
2026-04-28 22:02 43.59580 -44.82654 38247 ft 462 kts 280°
2026-04-28 22:03 43.60467 -44.91445 38252 ft 462 kts 280°
2026-04-28 22:03 43.61345 -45.00212 38252 ft 461 kts 280°
2026-04-28 22:04 43.62214 -45.08962 38254 ft 460 kts 280°
2026-04-28 22:04 43.63071 -45.17659 38263 ft 460 kts 280°
2026-04-28 22:05 43.63927 -45.26408 38268 ft 459 kts 280°
2026-04-28 22:05 43.64767 -45.35071 38267 ft 459 kts 280°
2026-04-28 22:06 43.65605 -45.43784 38271 ft 458 kts 280°
2026-04-28 22:06 43.66439 -45.52530 38270 ft 457 kts 280°
2026-04-28 22:07 43.67264 -45.61245 38275 ft 457 kts 280°
2026-04-28 22:07 43.68073 -45.69869 38278 ft 456 kts 280°
2026-04-28 22:08 43.68882 -45.78562 38275 ft 456 kts 280°
2026-04-28 22:08 43.69682 -45.87232 38277 ft 455 kts 280°
2026-04-28 22:09 43.70471 -45.95854 38282 ft 454 kts 280°
2026-04-28 22:09 43.71255 -46.04491 38280 ft 453 kts 279°
2026-04-28 22:10 43.72033 -46.13138 38289 ft 453 kts 279°
2026-04-28 22:10 43.72802 -46.21763 38291 ft 452 kts 279°
2026-04-28 22:11 43.73555 -46.30285 38293 ft 452 kts 279°
2026-04-28 22:11 43.74307 -46.38856 38291 ft 452 kts 279°
2026-04-28 22:12 43.75054 -46.47459 38298 ft 451 kts 279°
2026-04-28 22:12 43.75792 -46.56040 38306 ft 450 kts 279°
2026-04-28 22:13 43.76527 -46.64651 38311 ft 450 kts 279°
2026-04-28 22:13 43.77255 -46.73255 38312 ft 450 kts 279°
2026-04-28 22:14 43.77975 -46.81855 38316 ft 450 kts 279°
2026-04-28 22:14 43.78688 -46.90442 38316 ft 449 kts 279°
2026-04-28 22:15 43.79390 -46.98972 38322 ft 449 kts 279°
2026-04-28 22:15 43.80089 -47.07551 38323 ft 448 kts 279°
2026-04-28 22:16 43.80782 -47.16139 38325 ft 448 kts 279°
2026-04-28 22:16 43.81463 -47.24660 38331 ft 448 kts 279°
2026-04-28 22:17 43.82144 -47.33253 38329 ft 448 kts 279°
2026-04-28 22:17 43.82816 -47.41826 38333 ft 448 kts 278°
2026-04-28 22:18 43.83478 -47.50359 38337 ft 448 kts 278°
2026-04-28 22:18 43.84136 -47.58916 38341 ft 448 kts 278°
2026-04-28 22:19 43.84788 -47.67476 38340 ft 447 kts 278°
2026-04-28 22:19 43.85435 -47.76062 38339 ft 447 kts 278°
2026-04-28 22:20 43.86073 -47.84614 38342 ft 447 kts 278°
2026-04-28 22:20 43.86707 -47.93197 38347 ft 447 kts 278°
2026-04-28 22:21 43.87329 -48.01704 38350 ft 446 kts 278°
2026-04-28 22:21 43.87946 -48.10236 38352 ft 446 kts 278°
2026-04-28 22:22 43.88558 -48.18796 38349 ft 446 kts 278°
2026-04-28 22:22 43.89163 -48.27337 38355 ft 445 kts 278°
2026-04-28 22:23 43.89762 -48.35892 38357 ft 445 kts 278°
2026-04-28 22:23 43.90350 -48.44374 38359 ft 445 kts 277°
2026-04-28 22:24 43.90935 -48.52915 38371 ft 445 kts 277°
2026-04-28 22:24 43.91513 -48.61443 38365 ft 444 kts 277°
2026-04-28 22:25 43.92083 -48.69945 38367 ft 444 kts 277°
2026-04-28 22:25 43.92645 -48.78434 38369 ft 443 kts 277°
2026-04-28 22:26 43.93204 -48.86963 38370 ft 443 kts 277°
2026-04-28 22:26 43.93755 -48.95464 38367 ft 443 kts 277°
2026-04-28 22:27 43.94298 -49.03951 38368 ft 443 kts 277°
2026-04-28 22:27 43.94839 -49.12510 38380 ft 443 kts 277°
2026-04-28 22:28 43.95369 -49.20985 38383 ft 443 kts 277°
2026-04-28 22:28 43.95893 -49.29473 38380 ft 442 kts 276°
2026-04-28 22:29 43.96413 -49.38006 38380 ft 442 kts 276°
2026-04-28 22:29 43.96924 -49.46490 38384 ft 441 kts 276°
2026-04-28 22:30 43.97426 -49.54928 38384 ft 441 kts 276°
2026-04-28 22:30 43.97924 -49.63398 38385 ft 440 kts 276°
2026-04-28 22:31 43.98414 -49.71857 38386 ft 440 kts 276°
2026-04-28 22:31 43.98900 -49.80335 38394 ft 439 kts 276°
2026-04-28 22:32 43.99377 -49.88784 38392 ft 439 kts 276°
2026-04-28 22:32 43.99847 -49.97214 38393 ft 438 kts 276°
2026-04-28 22:33 44.00310 -50.05598 38394 ft 438 kts 276°
2026-04-28 22:33 44.00774 -50.14054 38404 ft 439 kts 275°
2026-04-28 22:34 44.01228 -50.22494 38397 ft 439 kts 275°
2026-04-28 22:34 44.01679 -50.30951 38400 ft 439 kts 275°
2026-04-28 22:35 44.02121 -50.39372 38403 ft 439 kts 275°
2026-04-28 22:35 44.02558 -50.47823 38402 ft 439 kts 275°
2026-04-28 22:36 44.02990 -50.56296 38400 ft 439 kts 275°
2026-04-28 22:36 44.03402 -50.64493 38398 ft 439 kts 275°
2026-04-28 22:37 44.03825 -50.73040 38411 ft 440 kts 276°
2026-04-28 22:37 44.04236 -50.81458 38419 ft 440 kts 275°
2026-04-28 22:38 44.04644 -50.89969 38420 ft 440 kts 275°
2026-04-28 22:38 44.05044 -50.98420 38418 ft 440 kts 275°
2026-04-28 22:39 44.05439 -51.06925 38420 ft 440 kts 275°
2026-04-28 22:39 44.05826 -51.15375 38417 ft 440 kts 275°
2026-04-28 22:40 44.06208 -51.23847 38413 ft 440 kts 275°
2026-04-28 22:40 44.06585 -51.32371 38416 ft 440 kts 275°
2026-04-28 22:41 44.06956 -51.40871 38410 ft 440 kts 275°
2026-04-28 22:41 44.07320 -51.49369 38413 ft 441 kts 275°
2026-04-28 22:42 44.07674 -51.57807 38412 ft 440 kts 274°
2026-04-28 22:42 44.08026 -51.66316 38416 ft 441 kts 274°
2026-04-28 22:43 44.08371 -51.74831 38412 ft 441 kts 274°
2026-04-28 22:43 44.08710 -51.83335 38418 ft 441 kts 274°
2026-04-28 22:44 44.09040 -51.91785 38417 ft 441 kts 274°
2026-04-28 22:44 44.09366 -52.00303 38417 ft 441 kts 274°
2026-04-28 22:45 44.09687 -52.08825 38419 ft 442 kts 274°
2026-04-28 22:45 44.10000 -52.17338 38420 ft 442 kts 274°
2026-04-28 22:46 44.10308 -52.25855 38418 ft 442 kts 274°
2026-04-28 22:46 44.10610 -52.34405 38418 ft 442 kts 274°
2026-04-28 22:47 44.10905 -52.42931 38421 ft 442 kts 273°
2026-04-28 22:47 44.11193 -52.51442 38419 ft 442 kts 273°
2026-04-28 22:48 44.11475 -52.59965 38418 ft 442 kts 273°
2026-04-28 22:48 44.11751 -52.68509 38420 ft 442 kts 273°
2026-04-28 22:49 44.12021 -52.77057 38417 ft 442 kts 273°
2026-04-28 22:49 44.12285 -52.85599 38416 ft 442 kts 272°
2026-04-28 22:50 44.12542 -52.94133 38425 ft 442 kts 272°
2026-04-28 22:50 44.12792 -53.02638 38423 ft 442 kts 272°
2026-04-28 22:51 44.13036 -53.11182 38420 ft 442 kts 272°
2026-04-28 22:51 44.13274 -53.19716 38420 ft 442 kts 272°
2026-04-28 22:52 44.13506 -53.28279 38418 ft 443 kts 272°
2026-04-28 22:52 44.13731 -53.36790 38417 ft 443 kts 272°
2026-04-28 22:53 44.13950 -53.45348 38417 ft 443 kts 272°
2026-04-28 22:53 44.14163 -53.53925 38415 ft 443 kts 272°
2026-04-28 22:54 44.14369 -53.62462 38414 ft 443 kts 272°
2026-04-28 22:54 44.14570 -53.71037 38416 ft 444 kts 272°
2026-04-28 22:55 44.14764 -53.79615 38413 ft 444 kts 271°
2026-04-28 22:55 44.14952 -53.88232 38411 ft 444 kts 271°
2026-04-28 22:56 44.15134 -53.96810 38413 ft 444 kts 271°
2026-04-28 22:56 44.15308 -54.05350 38412 ft 444 kts 271°
2026-04-28 22:57 44.15476 -54.13925 38410 ft 444 kts 271°
2026-04-28 22:57 44.15638 -54.22514 38411 ft 444 kts 271°
2026-04-28 22:58 44.15794 -54.31101 38408 ft 444 kts 271°
2026-04-28 22:58 44.15944 -54.39713 38412 ft 444 kts 271°
2026-04-28 22:59 44.16086 -54.48280 38414 ft 445 kts 271°
2026-04-28 22:59 44.16223 -54.56885 38407 ft 445 kts 271°
2026-04-28 23:00 44.16353 -54.65482 38410 ft 445 kts 270°
2026-04-28 23:00 44.16475 -54.73941 38410 ft 445 kts 270°
2026-04-28 23:01 44.16592 -54.82512 38408 ft 446 kts 270°
2026-04-28 23:01 44.16582 -54.89729 38394 ft 446 kts 265°